Observation data for Coyanosa on 10/14/2019      Previous  Date       Current Mesonet Observations  Soil Data  Daily Summary Page  Observations in Plain Language
KCO1 140500Z 18006KT 21/11 A2998 RMK A01 T02090111  RH  053%=      5-min Rain = 0
KCO1 140501Z 18006KT 21/11 A2998 RMK A01 T02090111  RH  053%=      5-min Rain = 0
KCO1 140502Z 18006KT 21/11 A2998 RMK A01 T02090111  RH  054%=      5-min Rain = 0
KCO1 140503Z 18005KT 21/11 A2998 RMK A01 T02090112  RH  054%=      5-min Rain = 0
KCO1 140504Z 18005KT 21/11 A2998 RMK A01 T02090112  RH  054%=      5-min Rain = 0
KCO1 140505Z 19006KT 21/11 A2998 RMK A01 T02090112  RH  054%=      5-min Rain = 0
KCO1 140506Z 19006KT 21/11 A2998 RMK A01 T02090112  RH  054%=      5-min Rain = 0
KCO1 140507Z 19006KT 21/11 A2998 RMK A01 T02090113  RH  054%=      5-min Rain = 0
KCO1 140508Z 19005KT 21/11 A2998 RMK A01 T02100113  RH  054%=      5-min Rain = 0
KCO1 140509Z 19005KT 21/11 A2998 RMK A01 T02100113  RH  054%=      5-min Rain = 0
KCO1 140510Z 18005KT 21/11 A2998 RMK A01 T02090113  RH  054%=      5-min Rain = 0
KCO1 140511Z 19005KT 21/11 A2998 RMK A01 T02090113  RH  054%=      5-min Rain = 0
KCO1 140512Z 19005KT 21/11 A2998 RMK A01 T02100114  RH  054%=      5-min Rain = 0
KCO1 140513Z 19005KT 21/11 A2998 RMK A01 T02090114  RH  054%=      5-min Rain = 0
KCO1 140514Z 19004KT 21/11 A2998 RMK A01 T02090114  RH  054%=      5-min Rain = 0
KCO1 140515Z 19005KT 21/11 A2998 RMK A01 T02090114  RH  055%=      5-min Rain = 0
KCO1 140516Z 19005KT 21/11 A2998 RMK A01 T02080114  RH  055%=      5-min Rain = 0
KCO1 140517Z 18004KT 21/11 A2998 RMK A01 T02080114  RH  055%=      5-min Rain = 0
KCO1 140518Z 18004KT 21/12 A2998 RMK A01 T02080115  RH  055%=      5-min Rain = 0
KCO1 140519Z 18004KT 21/11 A2998 RMK A01 T02080114  RH  055%=      5-min Rain = 0
KCO1 140520Z 18004KT 21/11 A2998 RMK A01 T02080114  RH  055%=      5-min Rain = 0
KCO1 140521Z 19004KT 21/11 A2998 RMK A01 T02080114  RH  055%=      5-min Rain = 0
KCO1 140522Z 19004KT 21/11 A2998 RMK A01 T02070114  RH  055%=      5-min Rain = 0
KCO1 140523Z 22002KT 21/12 A2998 RMK A01 T02070115  RH  056%=      5-min Rain = 0
KCO1 140524Z 21003KT 21/11 A2998 RMK A01 T02060114  RH  056%=      5-min Rain = 0
KCO1 140525Z 22003KT 21/12 A2999 RMK A01 T02060115  RH  056%=      5-min Rain = 0
KCO1 140526Z 23003KT 21/12 A2999 RMK A01 T02060115  RH  056%=      5-min Rain = 0
KCO1 140527Z 23003KT 21/12 A2999 RMK A01 T02060115  RH  056%=      5-min Rain = 0
KCO1 140528Z 24003KT 21/12 A2998 RMK A01 T02060115  RH  056%=      5-min Rain = 0
KCO1 140529Z 25002KT 21/12 A2998 RMK A01 T02060116  RH  056%=      5-min Rain = 0
KCO1 140530Z 24002KT 21/12 A2998 RMK A01 T02060115  RH  056%=      5-min Rain = 0
KCO1 140531Z 22001KT 21/12 A2998 RMK A01 T02060115  RH  056%=      5-min Rain = 0
KCO1 140532Z 19002KT 21/12 A2998 RMK A01 T02050116  RH  056%=      5-min Rain = 0
KCO1 140533Z 19003KT 21/12 A2998 RMK A01 T02050115  RH  056%=      5-min Rain = 0
KCO1 140534Z 19004KT 21/12 A2998 RMK A01 T02060116  RH  056%=      5-min Rain = 0
KCO1 140535Z 18004KT 21/12 A2998 RMK A01 T02060116  RH  056%=      5-min Rain = 0
KCO1 140536Z 18004KT 21/12 A2998 RMK A01 T02050116  RH  056%=      5-min Rain = 0
KCO1 140537Z 18004KT 21/12 A2998 RMK A01 T02050116  RH  057%=      5-min Rain = 0
KCO1 140538Z 18004KT 20/12 A2998 RMK A01 T02040115  RH  057%=      5-min Rain = 0
KCO1 140539Z 18004KT 20/12 A2998 RMK A01 T02030115  RH  057%=      5-min Rain = 0
KCO1 140540Z 18004KT 20/12 A2998 RMK A01 T02020115  RH  057%=      5-min Rain = 0
KCO1 140541Z 18004KT 20/12 A2998 RMK A01 T02020115  RH  057%=      5-min Rain = 0
KCO1 140542Z 18004KT 20/12 A2998 RMK A01 T02010115  RH  058%=      5-min Rain = 0
KCO1 140543Z 18005KT 20/12 A2998 RMK A01 T02010115  RH  058%=      5-min Rain = 0
KCO1 140544Z 19004KT 20/12 A2998 RMK A01 T02000115  RH  058%=      5-min Rain = 0
KCO1 140545Z 19004KT 20/12 A2998 RMK A01 T02000116  RH  058%=      5-min Rain = 0
KCO1 140546Z 19005KT 20/12 A2998 RMK A01 T02000116  RH  058%=      5-min Rain = 0
KCO1 140547Z 19005KT 20/12 A2998 RMK A01 T02010117  RH  058%=      5-min Rain = 0
KCO1 140548Z 19005KT 20/12 A2998 RMK A01 T02010117  RH  058%=      5-min Rain = 0
KCO1 140549Z 19005KT 20/12 A2998 RMK A01 T02010117  RH  058%=      5-min Rain = 0
KCO1 140550Z 19005KT 20/12 A2998 RMK A01 T02010117  RH  058%=      5-min Rain = 0
KCO1 140551Z 20005KT 20/12 A2998 RMK A01 T02020117  RH  058%=      5-min Rain = 0
KCO1 140552Z 20005KT 20/12 A2998 RMK A01 T02020117  RH  058%=      5-min Rain = 0
KCO1 140553Z 21005KT 20/12 A2998 RMK A01 T02020117  RH  058%=      5-min Rain = 0
KCO1 140554Z 21005KT 20/12 A2998 RMK A01 T02020117  RH  058%=      5-min Rain = 0
KCO1 140555Z 21004KT 20/12 A2998 RMK A01 T02030117  RH  058%=      5-min Rain = 0
KCO1 140556Z 21004KT 20/12 A2998 RMK A01 T02030117  RH  058%=      5-min Rain = 0
KCO1 140557Z 20004KT 20/12 A2998 RMK A01 T02020117  RH  058%=      5-min Rain = 0
KCO1 140558Z 20005KT 20/12 A2998 RMK A01 T02020117  RH  058%=      5-min Rain = 0
KCO1 140559Z 20005KT 20/12 A2998 RMK A01 T02030117  RH  058%=      5-min Rain = 0
KCO1 140600Z 21004KT 20/12 A2998 RMK A01 T02020117  RH  058%=      5-min Rain = 0
KCO1 140601Z 22004KT 20/12 A2998 RMK A01 T02020117  RH  058%=      5-min Rain = 0
KCO1 140602Z 23005KT 20/12 A2999 RMK A01 T02020118  RH  058%=      5-min Rain = 0
KCO1 140603Z 24005KT 20/12 A2999 RMK A01 T02020118  RH  058%=      5-min Rain = 0
KCO1 140604Z 25004KT 20/12 A2999 RMK A01 T02020118  RH  058%=      5-min Rain = 0
KCO1 140605Z 25005KT 20/12 A2999 RMK A01 T02020118  RH  059%=      5-min Rain = 0
KCO1 140606Z 25004KT 20/12 A2999 RMK A01 T02020118  RH  058%=      5-min Rain = 0
KCO1 140607Z 26004KT 20/12 A2999 RMK A01 T02020117  RH  058%=      5-min Rain = 0
KCO1 140608Z 26004KT 20/12 A2999 RMK A01 T02020117  RH  058%=      5-min Rain = 0
KCO1 140609Z 26004KT 20/12 A2999 RMK A01 T02030117  RH  058%=      5-min Rain = 0
KCO1 140610Z 29004KT 20/12 A2999 RMK A01 T02030117  RH  058%=      5-min Rain = 0
KCO1 140611Z 28004KT 20/12 A2999 RMK A01 T02030117  RH  058%=      5-min Rain = 0
KCO1 140612Z 30004KT 20/12 A2999 RMK A01 T02030117  RH  058%=      5-min Rain = 0
KCO1 140613Z 30002KT 20/12 A2999 RMK A01 T02020117  RH  058%=      5-min Rain = 0
KCO1 140614Z 29001KT 20/12 A2999 RMK A01 T02020116  RH  058%=      5-min Rain = 0
KCO1 140615Z 23001KT 20/12 A2999 RMK A01 T02010116  RH  058%=      5-min Rain = 0
KCO1 140616Z 19002KT 20/12 A2998 RMK A01 T02000117  RH  059%=      5-min Rain = 0
KCO1 140617Z 19003KT 20/12 A2998 RMK A01 T01990117  RH  059%=      5-min Rain = 0
KCO1 140618Z 20003KT 20/12 A2998 RMK A01 T01990117  RH  059%=      5-min Rain = 0
KCO1 140619Z 19003KT 20/12 A2998 RMK A01 T01990118  RH  059%=      5-min Rain = 0
KCO1 140620Z 19003KT 20/12 A2998 RMK A01 T02000118  RH  059%=      5-min Rain = 0
KCO1 140621Z 21003KT 20/12 A2999 RMK A01 T02000118  RH  059%=      5-min Rain = 0
KCO1 140622Z 26002KT 20/12 A2999 RMK A01 T01990118  RH  060%=      5-min Rain = 0
KCO1 140623Z 27003KT 20/12 A2999 RMK A01 T01990118  RH  059%=      5-min Rain = 0
KCO1 140624Z 28002KT 20/12 A2999 RMK A01 T02000117  RH  059%=      5-min Rain = 0
KCO1 140625Z 28003KT 20/12 A2999 RMK A01 T02000117  RH  059%=      5-min Rain = 0
KCO1 140626Z 27003KT 20/12 A2999 RMK A01 T02000117  RH  059%=      5-min Rain = 0
KCO1 140627Z 28003KT 20/12 A2999 RMK A01 T02000117  RH  059%=      5-min Rain = 0
KCO1 140628Z 28002KT 20/12 A2999 RMK A01 T02000117  RH  059%=      5-min Rain = 0
KCO1 140629Z 28001KT 20/12 A2999 RMK A01 T02000117  RH  059%=      5-min Rain = 0
KCO1 140630Z 27002KT 20/12 A2999 RMK A01 T02000118  RH  059%=      5-min Rain = 0
KCO1 140631Z 27002KT 20/12 A2999 RMK A01 T02000117  RH  059%=      5-min Rain = 0
KCO1 140632Z 28002KT 20/12 A2999 RMK A01 T02000117  RH  059%=      5-min Rain = 0
KCO1 140633Z 28001KT 20/12 A2999 RMK A01 T01990117  RH  059%=      5-min Rain = 0
KCO1 140634Z 28001KT 20/12 A2999 RMK A01 T01980117  RH  060%=      5-min Rain = 0
KCO1 140635Z 28000KT 20/12 A2999 RMK A01 T01970117  RH  060%=      5-min Rain = 0
KCO1 140636Z 29000KT 20/12 A2999 RMK A01 T01970117  RH  060%=      5-min Rain = 0
KCO1 140637Z 29000KT 20/12 A2999 RMK A01 T01960117  RH  060%=      5-min Rain = 0
KCO1 140638Z 30000KT 20/12 A2998 RMK A01 T01950117  RH  061%=      5-min Rain = 0
KCO1 140639Z 00000KT 20/12 A2998 RMK A01 T01950117  RH  061%=      5-min Rain = 0
KCO1 140640Z 29000KT 20/12 A2998 RMK A01 T01950117  RH  061%=      5-min Rain = 0
KCO1 140641Z 00000KT 19/12 A2998 RMK A01 T01940117  RH  061%=      5-min Rain = 0
KCO1 140642Z 00000KT 19/12 A2998 RMK A01 T01940117  RH  061%=      5-min Rain = 0
KCO1 140643Z 00000KT 20/12 A2998 RMK A01 T01950117  RH  061%=      5-min Rain = 0
KCO1 140644Z 24000KT 20/12 A2998 RMK A01 T01950117  RH  061%=      5-min Rain = 0
KCO1 140645Z 13001KT 19/12 A2998 RMK A01 T01940116  RH  061%=      5-min Rain = 0
KCO1 140646Z 13002KT 19/12 A2998 RMK A01 T01930117  RH  061%=      5-min Rain = 0
KCO1 140647Z 13002KT 19/12 A2998 RMK A01 T01930117  RH  061%=      5-min Rain = 0
KCO1 140648Z 13002KT 19/12 A2999 RMK A01 T01920116  RH  061%=      5-min Rain = 0
KCO1 140649Z 13001KT 19/12 A2999 RMK A01 T01910116  RH  062%=      5-min Rain = 0
KCO1 140650Z 12001KT 19/12 A2999 RMK A01 T01900116  RH  062%=      5-min Rain = 0
KCO1 140651Z 10001KT 19/12 A2999 RMK A01 T01890116  RH  062%=      5-min Rain = 0
KCO1 140652Z 09001KT 19/12 A2999 RMK A01 T01890115  RH  062%=      5-min Rain = 0
KCO1 140653Z 07002KT 19/12 A2999 RMK A01 T01880115  RH  062%=      5-min Rain = 0
KCO1 140654Z 08002KT 19/12 A2999 RMK A01 T01880115  RH  063%=      5-min Rain = 0
KCO1 140655Z 09002KT 19/12 A2999 RMK A01 T01880116  RH  063%=      5-min Rain = 0
KCO1 140656Z 08003KT 19/12 A2999 RMK A01 T01870116  RH  063%=      5-min Rain = 0
KCO1 140657Z 08003KT 19/12 A2999 RMK A01 T01870116  RH  063%=      5-min Rain = 0
KCO1 140658Z 09003KT 19/12 A2999 RMK A01 T01860115  RH  064%=      5-min Rain = 0
KCO1 140659Z 10003KT 19/12 A2999 RMK A01 T01850116  RH  064%=      5-min Rain = 0
KCO1 140700Z 11003KT 18/12 A2999 RMK A01 T01840116  RH  064%=      5-min Rain = 0
KCO1 140701Z 12003KT 18/12 A2999 RMK A01 T01840116  RH  065%=      5-min Rain = 0
KCO1 140702Z 12003KT 18/12 A2999 RMK A01 T01830115  RH  065%=      5-min Rain = 0
KCO1 140703Z 13003KT 18/12 A2999 RMK A01 T01820115  RH  065%=      5-min Rain = 0
KCO1 140704Z 13004KT 18/12 A2999 RMK A01 T01810115  RH  065%=      5-min Rain = 0
KCO1 140705Z 13003KT 18/12 A2999 RMK A01 T01810115  RH  065%=      5-min Rain = 0
KCO1 140706Z 13003KT 18/12 A2999 RMK A01 T01810115  RH  065%=      5-min Rain = 0
KCO1 140707Z 14003KT 18/12 A2999 RMK A01 T01800115  RH  065%=      5-min Rain = 0
KCO1 140708Z 14002KT 18/12 A2999 RMK A01 T01800115  RH  065%=      5-min Rain = 0
KCO1 140709Z 14003KT 18/12 A2999 RMK A01 T01800115  RH  065%=      5-min Rain = 0
KCO1 140710Z 14002KT 18/12 A2999 RMK A01 T01800115  RH  065%=      5-min Rain = 0
KCO1 140711Z 14002KT 18/12 A2999 RMK A01 T01800115  RH  066%=      5-min Rain = 0
KCO1 140712Z 14002KT 18/11 A2999 RMK A01 T01800114  RH  066%=      5-min Rain = 0
KCO1 140713Z 13002KT 18/12 A2998 RMK A01 T01800115  RH  066%=      5-min Rain = 0
KCO1 140714Z 12003KT 18/11 A2998 RMK A01 T01800114  RH  065%=      5-min Rain = 0
KCO1 140715Z 13004KT 18/11 A2998 RMK A01 T01810114  RH  065%=      5-min Rain = 0
KCO1 140716Z 13004KT 18/11 A2998 RMK A01 T01800114  RH  065%=      5-min Rain = 0
KCO1 140717Z 12004KT 18/11 A2998 RMK A01 T01790114  RH  066%=      5-min Rain = 0
KCO1 140718Z 11005KT 18/12 A2998 RMK A01 T01790115  RH  066%=      5-min Rain = 0
KCO1 140719Z 11006KT 18/11 A2998 RMK A01 T01780114  RH  066%=      5-min Rain = 0
KCO1 140720Z 11006KT 18/11 A2998 RMK A01 T01780114  RH  066%=      5-min Rain = 0
KCO1 140721Z 11006KT 18/11 A2998 RMK A01 T01770114  RH  066%=      5-min Rain = 0
KCO1 140722Z 11005KT 18/11 A2998 RMK A01 T01770114  RH  067%=      5-min Rain = 0
KCO1 140723Z 11005KT 18/11 A2998 RMK A01 T01770114  RH  066%=      5-min Rain = 0
KCO1 140724Z 11004KT 18/11 A2998 RMK A01 T01780114  RH  066%=      5-min Rain = 0
KCO1 140725Z 09003KT 18/11 A2998 RMK A01 T01770113  RH  066%=      5-min Rain = 0
KCO1 140726Z 05002KT 18/11 A2998 RMK A01 T01780114  RH  066%=      5-min Rain = 0
KCO1 140727Z 02001KT 18/12 A2998 RMK A01 T01790115  RH  066%=      5-min Rain = 0
KCO1 140728Z 07001KT 18/12 A2998 RMK A01 T01810116  RH  066%=      5-min Rain = 0
KCO1 140729Z 09002KT 18/12 A2998 RMK A01 T01820116  RH  065%=      5-min Rain = 0
KCO1 140730Z 10002KT 18/12 A2998 RMK A01 T01830116  RH  065%=      5-min Rain = 0
KCO1 140731Z 09002KT 18/12 A2998 RMK A01 T01830116  RH  065%=      5-min Rain = 0
KCO1 140732Z 10002KT 18/12 A2998 RMK A01 T01830115  RH  064%=      5-min Rain = 0
KCO1 140733Z 10002KT 18/12 A2998 RMK A01 T01830115  RH  065%=      5-min Rain = 0
KCO1 140734Z 10002KT 18/12 A2998 RMK A01 T01830115  RH  065%=      5-min Rain = 0
KCO1 140735Z 10003KT 18/12 A2998 RMK A01 T01830115  RH  065%=      5-min Rain = 0
KCO1 140736Z 10003KT 18/12 A2998 RMK A01 T01830116  RH  065%=      5-min Rain = 0
KCO1 140737Z 10003KT 18/12 A2998 RMK A01 T01830115  RH  065%=      5-min Rain = 0
KCO1 140738Z 10004KT 18/12 A2998 RMK A01 T01830116  RH  065%=      5-min Rain = 0
KCO1 140739Z 10004KT 18/12 A2998 RMK A01 T01820116  RH  065%=      5-min Rain = 0
KCO1 140740Z 10004KT 18/12 A2998 RMK A01 T01810116  RH  066%=      5-min Rain = 0
KCO1 140741Z 10005KT 18/12 A2998 RMK A01 T01800117  RH  066%=      5-min Rain = 0
KCO1 140742Z 11005KT 18/12 A2998 RMK A01 T01800116  RH  066%=      5-min Rain = 0
KCO1 140743Z 11005KT 18/12 A2998 RMK A01 T01800116  RH  066%=      5-min Rain = 0
KCO1 140744Z 11004KT 18/12 A2998 RMK A01 T01800116  RH  066%=      5-min Rain = 0
KCO1 140745Z 11004KT 18/12 A2998 RMK A01 T01800116  RH  066%=      5-min Rain = 0
KCO1 140746Z 12004KT 18/12 A2998 RMK A01 T01800116  RH  066%=      5-min Rain = 0
KCO1 140747Z 13003KT 18/12 A2998 RMK A01 T01800116  RH  066%=      5-min Rain = 0
KCO1 140748Z 13004KT 18/12 A2998 RMK A01 T01800116  RH  066%=      5-min Rain = 0
KCO1 140749Z 14004KT 18/12 A2998 RMK A01 T01800116  RH  066%=      5-min Rain = 0
KCO1 140750Z 15004KT 18/12 A2998 RMK A01 T01800116  RH  066%=      5-min Rain = 0
KCO1 140751Z 15004KT 18/12 A2998 RMK A01 T01800116  RH  066%=      5-min Rain = 0
KCO1 140752Z 16004KT 18/12 A2998 RMK A01 T01800116  RH  066%=      5-min Rain = 0
KCO1 140753Z 16003KT 18/12 A2998 RMK A01 T01790116  RH  066%=      5-min Rain = 0
KCO1 140754Z 16002KT 18/12 A2998 RMK A01 T01790116  RH  066%=      5-min Rain = 0
KCO1 140755Z 17001KT 18/12 A2998 RMK A01 T01790116  RH  066%=      5-min Rain = 0
KCO1 140756Z 18001KT 18/12 A2998 RMK A01 T01790115  RH  066%=      5-min Rain = 0
KCO1 140757Z 20001KT 18/12 A2998 RMK A01 T01800116  RH  066%=      5-min Rain = 0
KCO1 140758Z 20001KT 18/12 A2998 RMK A01 T01810116  RH  066%=      5-min Rain = 0
KCO1 140759Z 18002KT 18/12 A2998 RMK A01 T01820117  RH  066%=      5-min Rain = 0
KCO1 140800Z 17003KT 18/12 A2998 RMK A01 T01830117  RH  066%=      5-min Rain = 0
KCO1 140801Z 16004KT 18/12 A2998 RMK A01 T01840118  RH  065%=      5-min Rain = 0
KCO1 140802Z 16005KT 18/12 A2998 RMK A01 T01840117  RH  065%=      5-min Rain = 0
KCO1 140803Z 16005KT 18/12 A2998 RMK A01 T01840118  RH  065%=      5-min Rain = 0
KCO1 140804Z 16005KT 19/12 A2998 RMK A01 T01850120  RH  066%=      5-min Rain = 0
KCO1 140805Z 16005KT 19/12 A2998 RMK A01 T01850120  RH  066%=      5-min Rain = 0
KCO1 140806Z 15004KT 19/12 A2998 RMK A01 T01850120  RH  066%=      5-min Rain = 0
KCO1 140807Z 14004KT 19/12 A2998 RMK A01 T01860120  RH  066%=      5-min Rain = 0
KCO1 140808Z 14003KT 19/12 A2998 RMK A01 T01860120  RH  065%=      5-min Rain = 0
KCO1 140809Z 13003KT 19/12 A2998 RMK A01 T01870120  RH  065%=      5-min Rain = 0
KCO1 140810Z 13004KT 19/12 A2998 RMK A01 T01870119  RH  065%=      5-min Rain = 0
KCO1 140811Z 14004KT 19/12 A2998 RMK A01 T01870119  RH  065%=      5-min Rain = 0
KCO1 140812Z 13004KT 19/12 A2998 RMK A01 T01860118  RH  064%=      5-min Rain = 0
KCO1 140813Z 13004KT 19/12 A2998 RMK A01 T01860118  RH  065%=      5-min Rain = 0
KCO1 140814Z 14004KT 19/12 A2998 RMK A01 T01860118  RH  065%=      5-min Rain = 0
KCO1 140815Z 14004KT 19/12 A2998 RMK A01 T01850118  RH  065%=      5-min Rain = 0
KCO1 140816Z 14004KT 19/12 A2998 RMK A01 T01850118  RH  065%=      5-min Rain = 0
KCO1 140817Z 14004KT 19/12 A2998 RMK A01 T01850117  RH  065%=      5-min Rain = 0
KCO1 140818Z 14004KT 19/12 A2998 RMK A01 T01860118  RH  065%=      5-min Rain = 0
KCO1 140819Z 14004KT 19/12 A2998 RMK A01 T01860118  RH  065%=      5-min Rain = 0
KCO1 140820Z 15004KT 19/12 A2998 RMK A01 T01870118  RH  065%=      5-min Rain = 0
KCO1 140821Z 15004KT 19/12 A2998 RMK A01 T01870118  RH  064%=      5-min Rain = 0
KCO1 140822Z 15004KT 19/12 A2998 RMK A01 T01870118  RH  064%=      5-min Rain = 0
KCO1 140823Z 15004KT 19/12 A2998 RMK A01 T01870118  RH  064%=      5-min Rain = 0
KCO1 140824Z 16004KT 19/12 A2998 RMK A01 T01880119  RH  064%=      5-min Rain = 0
KCO1 140825Z 16004KT 19/12 A2998 RMK A01 T01880119  RH  064%=      5-min Rain = 0
KCO1 140826Z 17004KT 19/12 A2998 RMK A01 T01880119  RH  064%=      5-min Rain = 0
KCO1 140827Z 17004KT 19/12 A2998 RMK A01 T01890119  RH  064%=      5-min Rain = 0
KCO1 140828Z 18004KT 19/12 A2998 RMK A01 T01890119  RH  064%=      5-min Rain = 0
KCO1 140829Z 19004KT 19/12 A2998 RMK A01 T01900120  RH  064%=      5-min Rain = 0
KCO1 140830Z 19004KT 19/12 A2998 RMK A01 T01900120  RH  064%=      5-min Rain = 0
KCO1 140831Z 19005KT 19/12 A2998 RMK A01 T01900120  RH  064%=      5-min Rain = 0
KCO1 140832Z 19004KT 19/12 A2998 RMK A01 T01900121  RH  064%=      5-min Rain = 0
KCO1 140833Z 19005KT 19/12 A2998 RMK A01 T01900121  RH  064%=      5-min Rain = 0
KCO1 140834Z 19005KT 19/12 A2998 RMK A01 T01900121  RH  064%=      5-min Rain = 0
KCO1 140835Z 19004KT 19/12 A2998 RMK A01 T01900122  RH  064%=      5-min Rain = 0
KCO1 140836Z 19004KT 19/12 A2998 RMK A01 T01900122  RH  064%=      5-min Rain = 0
KCO1 140837Z 18004KT 19/12 A2998 RMK A01 T01900122  RH  065%=      5-min Rain = 0
KCO1 140838Z 18004KT 19/12 A2998 RMK A01 T01900122  RH  065%=      5-min Rain = 0
KCO1 140839Z 18004KT 19/12 A2997 RMK A01 T01900122  RH  065%=      5-min Rain = 0
KCO1 140840Z 17004KT 19/12 A2997 RMK A01 T01900122  RH  065%=      5-min Rain = 0
KCO1 140841Z 17005KT 19/12 A2997 RMK A01 T01900122  RH  065%=      5-min Rain = 0
KCO1 140842Z 17005KT 19/12 A2997 RMK A01 T01900122  RH  065%=      5-min Rain = 0
KCO1 140843Z 17006KT 19/12 A2997 RMK A01 T01900122  RH  065%=      5-min Rain = 0
KCO1 140844Z 17006KT 19/12 A2997 RMK A01 T01900122  RH  065%=      5-min Rain = 0
KCO1 140845Z 18006KT 19/12 A2997 RMK A01 T01900122  RH  065%=      5-min Rain = 0
KCO1 140846Z 18005KT 19/12 A2997 RMK A01 T01900122  RH  064%=      5-min Rain = 0
KCO1 140847Z 19005KT 19/12 A2997 RMK A01 T01910122  RH  064%=      5-min Rain = 0
KCO1 140848Z 19004KT 19/12 A2997 RMK A01 T01910122  RH  064%=      5-min Rain = 0
KCO1 140849Z 20004KT 19/12 A2997 RMK A01 T01910122  RH  064%=      5-min Rain = 0
KCO1 140850Z 20005KT 19/12 A2997 RMK A01 T01910122  RH  064%=      5-min Rain = 0
KCO1 140851Z 20004KT 19/12 A2997 RMK A01 T01920121  RH  064%=      5-min Rain = 0
KCO1 140852Z 21003KT 19/12 A2997 RMK A01 T01920121  RH  064%=      5-min Rain = 0
KCO1 140853Z 22003KT 19/12 A2997 RMK A01 T01930122  RH  063%=      5-min Rain = 0
KCO1 140854Z 22003KT 19/12 A2997 RMK A01 T01930122  RH  063%=      5-min Rain = 0
KCO1 140855Z 22003KT 19/12 A2997 RMK A01 T01930122  RH  063%=      5-min Rain = 0
KCO1 140856Z 22003KT 19/12 A2997 RMK A01 T01920121  RH  063%=      5-min Rain = 0
KCO1 140857Z 22002KT 19/12 A2997 RMK A01 T01920122  RH  064%=      5-min Rain = 0
KCO1 140858Z 21001KT 19/12 A2997 RMK A01 T01920122  RH  064%=      5-min Rain = 0
KCO1 140859Z 20002KT 19/12 A2997 RMK A01 T01910121  RH  064%=      5-min Rain = 0
KCO1 140900Z 20001KT 19/12 A2997 RMK A01 T01910121  RH  064%=      5-min Rain = 0
KCO1 140901Z 20001KT 19/12 A2997 RMK A01 T01910122  RH  064%=      5-min Rain = 0
KCO1 140902Z 23001KT 19/12 A2997 RMK A01 T01900121  RH  064%=      5-min Rain = 0
KCO1 140903Z 24002KT 19/12 A2997 RMK A01 T01900121  RH  064%=      5-min Rain = 0
KCO1 140904Z 22004KT 19/12 A2997 RMK A01 T01910121  RH  064%=      5-min Rain = 0
KCO1 140905Z 22005KT 19/12 A2997 RMK A01 T01910120  RH  063%=      5-min Rain = 0
KCO1 140906Z 22005KT 19/12 A2997 RMK A01 T01920119  RH  063%=      5-min Rain = 0
KCO1 140907Z 22004KT 19/12 A2997 RMK A01 T01930119  RH  062%=      5-min Rain = 0
KCO1 140908Z 21003KT 19/12 A2997 RMK A01 T01940119  RH  062%=      5-min Rain = 0
KCO1 140909Z 20001KT 20/12 A2997 RMK A01 T01950119  RH  062%=      5-min Rain = 0
KCO1 140910Z 19001KT 20/12 A2997 RMK A01 T01950120  RH  062%=      5-min Rain = 0
KCO1 140911Z 19002KT 20/12 A2997 RMK A01 T01950119  RH  062%=      5-min Rain = 0
KCO1 140912Z 20002KT 20/12 A2997 RMK A01 T01950120  RH  062%=      5-min Rain = 0
KCO1 140913Z 22002KT 20/12 A2997 RMK A01 T01950120  RH  062%=      5-min Rain = 0
KCO1 140914Z 21003KT 19/12 A2997 RMK A01 T01940120  RH  062%=      5-min Rain = 0
KCO1 140915Z 20003KT 19/12 A2997 RMK A01 T01940120  RH  062%=      5-min Rain = 0
KCO1 140916Z 19004KT 19/12 A2997 RMK A01 T01940120  RH  062%=      5-min Rain = 0
KCO1 140917Z 18004KT 19/12 A2997 RMK A01 T01940120  RH  062%=      5-min Rain = 0
KCO1 140918Z 16002KT 19/12 A2997 RMK A01 T01930118  RH  061%=      5-min Rain = 0
KCO1 140919Z 15002KT 19/12 A2996 RMK A01 T01940120  RH  062%=      5-min Rain = 0
KCO1 140920Z 15001KT 19/12 A2996 RMK A01 T01940121  RH  063%=      5-min Rain = 0
KCO1 140921Z 17001KT 19/12 A2996 RMK A01 T01930121  RH  063%=      5-min Rain = 0
KCO1 140922Z 17001KT 19/12 A2996 RMK A01 T01910120  RH  063%=      5-min Rain = 0
KCO1 140923Z 17002KT 19/12 A2996 RMK A01 T01910119  RH  063%=      5-min Rain = 0
KCO1 140924Z 16001KT 19/12 A2996 RMK A01 T01910119  RH  063%=      5-min Rain = 0
KCO1 140925Z 13002KT 19/12 A2996 RMK A01 T01910119  RH  063%=      5-min Rain = 0
KCO1 140926Z 13003KT 19/12 A2996 RMK A01 T01910119  RH  063%=      5-min Rain = 0
KCO1 140927Z 14003KT 19/12 A2996 RMK A01 T01910120  RH  063%=      5-min Rain = 0
KCO1 140928Z 14004KT 19/12 A2996 RMK A01 T01900119  RH  064%=      5-min Rain = 0
KCO1 140929Z 13004KT 19/12 A2996 RMK A01 T01890119  RH  064%=      5-min Rain = 0
KCO1 140930Z 13003KT 19/12 A2996 RMK A01 T01890119  RH  064%=      5-min Rain = 0
KCO1 140931Z 14003KT 19/12 A2996 RMK A01 T01880119  RH  064%=      5-min Rain = 0
KCO1 140932Z 14002KT 19/12 A2996 RMK A01 T01880120  RH  065%=      5-min Rain = 0
KCO1 140933Z 15002KT 19/12 A2996 RMK A01 T01880120  RH  065%=      5-min Rain = 0
KCO1 140934Z 16002KT 19/12 A2996 RMK A01 T01870120  RH  065%=      5-min Rain = 0
KCO1 140935Z 15003KT 19/12 A2996 RMK A01 T01870119  RH  065%=      5-min Rain = 0
KCO1 140936Z 16003KT 19/12 A2996 RMK A01 T01870119  RH  065%=      5-min Rain = 0
KCO1 140937Z 17003KT 19/12 A2996 RMK A01 T01870119  RH  065%=      5-min Rain = 0
KCO1 140938Z 18002KT 19/12 A2996 RMK A01 T01870119  RH  065%=      5-min Rain = 0
KCO1 140939Z 19002KT 19/12 A2996 RMK A01 T01870119  RH  064%=      5-min Rain = 0
KCO1 140940Z 20003KT 19/12 A2996 RMK A01 T01880118  RH  064%=      5-min Rain = 0
KCO1 140941Z 19003KT 19/12 A2996 RMK A01 T01890118  RH  063%=      5-min Rain = 0
KCO1 140942Z 19003KT 19/12 A2996 RMK A01 T01910118  RH  063%=      5-min Rain = 0
KCO1 140943Z 20003KT 19/12 A2996 RMK A01 T01920118  RH  062%=      5-min Rain = 0
KCO1 140944Z 21002KT 19/12 A2996 RMK A01 T01920118  RH  062%=      5-min Rain = 0
KCO1 140945Z 23001KT 19/12 A2996 RMK A01 T01930119  RH  062%=      5-min Rain = 0
KCO1 140946Z 21002KT 19/12 A2997 RMK A01 T01920119  RH  062%=      5-min Rain = 0
KCO1 140947Z 20003KT 19/12 A2997 RMK A01 T01920118  RH  062%=      5-min Rain = 0
KCO1 140948Z 20003KT 19/12 A2997 RMK A01 T01920118  RH  062%=      5-min Rain = 0
KCO1 140949Z 20003KT 19/12 A2997 RMK A01 T01920118  RH  062%=      5-min Rain = 0
KCO1 140950Z 20003KT 19/12 A2997 RMK A01 T01920119  RH  062%=      5-min Rain = 0
KCO1 140951Z 20002KT 19/12 A2997 RMK A01 T01920120  RH  063%=      5-min Rain = 0
KCO1 140952Z 20002KT 19/12 A2997 RMK A01 T01920120  RH  063%=      5-min Rain = 0
KCO1 140953Z 20002KT 19/12 A2997 RMK A01 T01910120  RH  063%=      5-min Rain = 0
KCO1 140954Z 22002KT 19/12 A2997 RMK A01 T01900120  RH  063%=      5-min Rain = 0
KCO1 140955Z 21001KT 19/12 A2997 RMK A01 T01900119  RH  063%=      5-min Rain = 0
KCO1 140956Z 20001KT 19/12 A2997 RMK A01 T01900119  RH  063%=      5-min Rain = 0
KCO1 140957Z 19002KT 19/12 A2997 RMK A01 T01900119  RH  064%=      5-min Rain = 0
KCO1 140958Z 18003KT 19/12 A2997 RMK A01 T01900120  RH  064%=      5-min Rain = 0
KCO1 140959Z 17003KT 19/12 A2997 RMK A01 T01890118  RH  063%=      5-min Rain = 0
KCO1 141000Z 16002KT 19/12 A2997 RMK A01 T01910118  RH  062%=      5-min Rain = 0
KCO1 141001Z 15002KT 19/12 A2997 RMK A01 T01920120  RH  063%=      5-min Rain = 0
KCO1 141002Z 16003KT 19/12 A2997 RMK A01 T01920121  RH  063%=      5-min Rain = 0
KCO1 141003Z 17003KT 19/12 A2997 RMK A01 T01910121  RH  064%=      5-min Rain = 0
KCO1 141004Z 17004KT 19/12 A2997 RMK A01 T01900121  RH  064%=      5-min Rain = 0
KCO1 141005Z 17005KT 19/12 A2997 RMK A01 T01890120  RH  064%=      5-min Rain = 0
KCO1 141006Z 17005KT 19/12 A2997 RMK A01 T01880121  RH  065%=      5-min Rain = 0
KCO1 141007Z 17004KT 19/12 A2997 RMK A01 T01870121  RH  065%=      5-min Rain = 0
KCO1 141008Z 16004KT 19/12 A2997 RMK A01 T01870121  RH  065%=      5-min Rain = 0
KCO1 141009Z 17004KT 19/12 A2997 RMK A01 T01880122  RH  065%=      5-min Rain = 0
KCO1 141010Z 17005KT 19/12 A2997 RMK A01 T01880122  RH  065%=      5-min Rain = 0
KCO1 141011Z 17005KT 19/12 A2997 RMK A01 T01870122  RH  066%=      5-min Rain = 0
KCO1 141012Z 18005KT 19/12 A2997 RMK A01 T01880122  RH  066%=      5-min Rain = 0
KCO1 141013Z 18006KT 19/12 A2997 RMK A01 T01880123  RH  066%=      5-min Rain = 0
KCO1 141014Z 18006KT 19/12 A2997 RMK A01 T01880122  RH  065%=      5-min Rain = 0
KCO1 141015Z 18005KT 19/12 A2997 RMK A01 T01890122  RH  065%=      5-min Rain = 0
KCO1 141016Z 19005KT 19/12 A2997 RMK A01 T01900121  RH  064%=      5-min Rain = 0
KCO1 141017Z 19005KT 19/12 A2997 RMK A01 T01910121  RH  064%=      5-min Rain = 0
KCO1 141018Z 18005KT 19/12 A2997 RMK A01 T01920121  RH  063%=      5-min Rain = 0
KCO1 141019Z 18005KT 19/12 A2997 RMK A01 T01920121  RH  063%=      5-min Rain = 0
KCO1 141020Z 18005KT 19/12 A2997 RMK A01 T01920121  RH  063%=      5-min Rain = 0
KCO1 141021Z 18004KT 19/12 A2997 RMK A01 T01920121  RH  064%=      5-min Rain = 0
KCO1 141022Z 18004KT 19/12 A2997 RMK A01 T01920121  RH  064%=      5-min Rain = 0
KCO1 141023Z 17004KT 19/12 A2997 RMK A01 T01920122  RH  064%=      5-min Rain = 0
KCO1 141024Z 17004KT 19/12 A2997 RMK A01 T01920121  RH  064%=      5-min Rain = 0
KCO1 141025Z 17005KT 19/12 A2997 RMK A01 T01920122  RH  064%=      5-min Rain = 0
KCO1 141026Z 17005KT 19/12 A2997 RMK A01 T01920122  RH  064%=      5-min Rain = 0
KCO1 141027Z 17005KT 19/12 A2997 RMK A01 T01920122  RH  064%=      5-min Rain = 0
KCO1 141028Z 17005KT 19/12 A2997 RMK A01 T01920122  RH  064%=      5-min Rain = 0
KCO1 141029Z 17005KT 19/12 A2997 RMK A01 T01920122  RH  064%=      5-min Rain = 0
KCO1 141030Z 17006KT 19/12 A2997 RMK A01 T01920122  RH  064%=      5-min Rain = 0
KCO1 141031Z 17006KT 19/12 A2997 RMK A01 T01920122  RH  064%=      5-min Rain = 0
KCO1 141032Z 16006KT 19/12 A2997 RMK A01 T01920122  RH  064%=      5-min Rain = 0
KCO1 141033Z 17006KT 19/12 A2997 RMK A01 T01930122  RH  064%=      5-min Rain = 0
KCO1 141034Z 17005KT 19/12 A2997 RMK A01 T01930122  RH  063%=      5-min Rain = 0
KCO1 141035Z 17005KT 19/12 A2997 RMK A01 T01930122  RH  063%=      5-min Rain = 0
KCO1 141036Z 17005KT 19/12 A2997 RMK A01 T01940122  RH  063%=      5-min Rain = 0
KCO1 141037Z 16005KT 19/12 A2997 RMK A01 T01940122  RH  063%=      5-min Rain = 0
KCO1 141038Z 16005KT 19/12 A2997 RMK A01 T01940122  RH  063%=      5-min Rain = 0
KCO1 141039Z 16005KT 19/12 A2997 RMK A01 T01940121  RH  063%=      5-min Rain = 0
KCO1 141040Z 17005KT 20/12 A2997 RMK A01 T01950122  RH  063%=      5-min Rain = 0
KCO1 141041Z 17005KT 20/12 A2997 RMK A01 T01950122  RH  063%=      5-min Rain = 0
KCO1 141042Z 17005KT 20/12 A2997 RMK A01 T01950122  RH  063%=      5-min Rain = 0
KCO1 141043Z 18004KT 20/12 A2997 RMK A01 T01950122  RH  063%=      5-min Rain = 0
KCO1 141044Z 17004KT 20/12 A2997 RMK A01 T01950123  RH  063%=      5-min Rain = 0
KCO1 141045Z 17005KT 19/12 A2997 RMK A01 T01940123  RH  063%=      5-min Rain = 0
KCO1 141046Z 18005KT 19/12 A2997 RMK A01 T01940124  RH  064%=      5-min Rain = 0
KCO1 141047Z 17004KT 19/12 A2997 RMK A01 T01940124  RH  064%=      5-min Rain = 0
KCO1 141048Z 17005KT 19/13 A2997 RMK A01 T01940125  RH  064%=      5-min Rain = 0
KCO1 141049Z 17005KT 19/13 A2997 RMK A01 T01940126  RH  064%=      5-min Rain = 0
KCO1 141050Z 17005KT 19/13 A2997 RMK A01 T01940126  RH  065%=      5-min Rain = 0
KCO1 141051Z 18004KT 19/13 A2997 RMK A01 T01940126  RH  065%=      5-min Rain = 0
KCO1 141052Z 18004KT 19/13 A2997 RMK A01 T01940126  RH  065%=      5-min Rain = 0
KCO1 141053Z 18003KT 19/13 A2997 RMK A01 T01940127  RH  065%=      5-min Rain = 0
KCO1 141054Z 17003KT 20/13 A2997 RMK A01 T01950128  RH  065%=      5-min Rain = 0
KCO1 141055Z 17003KT 19/13 A2997 RMK A01 T01940128  RH  066%=      5-min Rain = 0
KCO1 141056Z 17004KT 19/13 A2997 RMK A01 T01940128  RH  066%=      5-min Rain = 0
KCO1 141057Z 16003KT 19/13 A2997 RMK A01 T01940128  RH  066%=      5-min Rain = 0
KCO1 141058Z 16003KT 19/13 A2997 RMK A01 T01940129  RH  066%=      5-min Rain = 0
KCO1 141059Z 17003KT 19/13 A2997 RMK A01 T01930129  RH  066%=      5-min Rain = 0
KCO1 141100Z 18003KT 19/13 A2997 RMK A01 T01930129  RH  067%=      5-min Rain = 0
KCO1 141101Z 18003KT 19/13 A2997 RMK A01 T01930130  RH  067%=      5-min Rain = 0
KCO1 141102Z 18003KT 19/13 A2997 RMK A01 T01920130  RH  067%=      5-min Rain = 0
KCO1 141103Z 17003KT 19/13 A2997 RMK A01 T01920131  RH  067%=      5-min Rain = 0
KCO1 141104Z 16003KT 19/13 A2997 RMK A01 T01920131  RH  068%=      5-min Rain = 0
KCO1 141105Z 15003KT 19/13 A2997 RMK A01 T01920132  RH  068%=      5-min Rain = 0
KCO1 141106Z 15004KT 19/13 A2997 RMK A01 T01910133  RH  069%=      5-min Rain = 0
KCO1 141107Z 15005KT 19/13 A2997 RMK A01 T01910134  RH  069%=      5-min Rain = 0
KCO1 141108Z 15005KT 19/13 A2997 RMK A01 T01900134  RH  070%=      5-min Rain = 0
KCO1 141109Z 15005KT 19/14 A2997 RMK A01 T01900135  RH  070%=      5-min Rain = 0
KCO1 141110Z 15004KT 19/14 A2997 RMK A01 T01890136  RH  071%=      5-min Rain = 0
KCO1 141111Z 14003KT 19/14 A2997 RMK A01 T01890136  RH  071%=      5-min Rain = 0
KCO1 141112Z 16003KT 19/14 A2998 RMK A01 T01880137  RH  072%=      5-min Rain = 0
KCO1 141113Z 15003KT 19/14 A2998 RMK A01 T01880137  RH  072%=      5-min Rain = 0
KCO1 141114Z 14003KT 19/14 A2998 RMK A01 T01880138  RH  072%=      5-min Rain = 0
KCO1 141115Z 13003KT 19/14 A2998 RMK A01 T01880137  RH  072%=      5-min Rain = 0
KCO1 141116Z 13003KT 19/14 A2998 RMK A01 T01880138  RH  073%=      5-min Rain = 0
KCO1 141117Z 12003KT 19/14 A2998 RMK A01 T01880139  RH  073%=      5-min Rain = 0
KCO1 141118Z 13004KT 19/14 A2998 RMK A01 T01880140  RH  074%=      5-min Rain = 0
KCO1 141119Z 13004KT 19/14 A2998 RMK A01 T01870139  RH  074%=      5-min Rain = 0
KCO1 141120Z 13004KT 19/14 A2998 RMK A01 T01860139  RH  074%=      5-min Rain = 0
KCO1 141121Z 13004KT 19/14 A2998 RMK A01 T01850138  RH  074%=      5-min Rain = 0
KCO1 141122Z 14004KT 18/14 A2998 RMK A01 T01840137  RH  074%=      5-min Rain = 0
KCO1 141123Z 14004KT 18/14 A2998 RMK A01 T01840137  RH  074%=      5-min Rain = 0
KCO1 141124Z 13004KT 18/14 A2998 RMK A01 T01830137  RH  074%=      5-min Rain = 0
KCO1 141125Z 12004KT 18/14 A2998 RMK A01 T01830139  RH  075%=      5-min Rain = 0
KCO1 141126Z 12004KT 18/14 A2998 RMK A01 T01830140  RH  076%=      5-min Rain = 0
KCO1 141127Z 12005KT 18/14 A2999 RMK A01 T01820141  RH  077%=      5-min Rain = 0
KCO1 141128Z 12005KT 18/14 A2999 RMK A01 T01810141  RH  077%=      5-min Rain = 0
KCO1 141129Z 13005KT 18/14 A2999 RMK A01 T01800141  RH  077%=      5-min Rain = 0
KCO1 141130Z 13004KT 18/14 A2999 RMK A01 T01800141  RH  078%=      5-min Rain = 0
KCO1 141131Z 14004KT 18/14 A2999 RMK A01 T01800140  RH  078%=      5-min Rain = 0
KCO1 141132Z 15004KT 18/14 A2999 RMK A01 T01800141  RH  078%=      5-min Rain = 0
KCO1 141133Z 15004KT 18/14 A2999 RMK A01 T01790141  RH  078%=      5-min Rain = 0
KCO1 141134Z 15003KT 18/14 A2999 RMK A01 T01800141  RH  078%=      5-min Rain = 0
KCO1 141135Z 15004KT 18/14 A2999 RMK A01 T01800142  RH  078%=      5-min Rain = 0
KCO1 141136Z 15003KT 18/14 A30 RMK A01 T01800142  RH  078%=      5-min Rain = 0
KCO1 141137Z 15003KT 18/14 A30 RMK A01 T01800142  RH  078%=      5-min Rain = 0
KCO1 141138Z 14003KT 18/14 A30 RMK A01 T01800142  RH  079%=      5-min Rain = 0
KCO1 141139Z 13003KT 18/14 A30 RMK A01 T01800143  RH  079%=      5-min Rain = 0
KCO1 141140Z 13003KT 18/14 A30 RMK A01 T01800143  RH  079%=      5-min Rain = 0
KCO1 141141Z 12003KT 18/14 A30 RMK A01 T01800143  RH  079%=      5-min Rain = 0
KCO1 141142Z 12003KT 18/14 A30 RMK A01 T01800143  RH  079%=      5-min Rain = 0
KCO1 141143Z 11003KT 18/14 A30 RMK A01 T01800144  RH  080%=      5-min Rain = 0
KCO1 141144Z 11003KT 18/15 A30 RMK A01 T01790145  RH  080%=      5-min Rain = 0
KCO1 141145Z 11002KT 18/15 A30 RMK A01 T01800145  RH  080%=      5-min Rain = 0
KCO1 141146Z 12003KT 18/14 A30 RMK A01 T01800144  RH  080%=      5-min Rain = 0
KCO1 141147Z 13003KT 18/15 A30 RMK A01 T01800145  RH  080%=      5-min Rain = 0
KCO1 141148Z 13003KT 18/15 A3001 RMK A01 T01800145  RH  080%=      5-min Rain = 0
KCO1 141149Z 14003KT 18/15 A3001 RMK A01 T01800145  RH  080%=      5-min Rain = 0
KCO1 141150Z 14003KT 18/15 A3001 RMK A01 T01800145  RH  080%=      5-min Rain = 0
KCO1 141151Z 15003KT 18/14 A3001 RMK A01 T01800144  RH  080%=      5-min Rain = 0
KCO1 141152Z 14003KT 18/14 A3001 RMK A01 T01800144  RH  080%=      5-min Rain = 0
KCO1 141153Z 15004KT 18/15 A3001 RMK A01 T01800145  RH  080%=      5-min Rain = 0
KCO1 141154Z 15003KT 18/15 A3001 RMK A01 T01800146  RH  081%=      5-min Rain = 0
KCO1 141155Z 15003KT 18/15 A3001 RMK A01 T01790146  RH  081%=      5-min Rain = 0
KCO1 141156Z 14003KT 18/15 A3001 RMK A01 T01790146  RH  081%=      5-min Rain = 0
KCO1 141157Z 14003KT 18/15 A3001 RMK A01 T01790146  RH  081%=      5-min Rain = 0
KCO1 141158Z 14003KT 18/15 A3001 RMK A01 T01790146  RH  081%=      5-min Rain = 0
KCO1 141159Z 14003KT 18/15 A3001 RMK A01 T01790147  RH  081%=      5-min Rain = 0
KCO1 141200Z 14003KT 18/15 A3001 RMK A01 T01790147  RH  082%=      5-min Rain = 0
KCO1 141201Z 13003KT 18/15 A3001 RMK A01 T01780148  RH  082%=      5-min Rain = 0
KCO1 141202Z 13003KT 18/15 A3001 RMK A01 T01780148  RH  082%=      5-min Rain = 0
KCO1 141203Z 13003KT 18/15 A3001 RMK A01 T01780149  RH  083%=      5-min Rain = 0
KCO1 141204Z 13003KT 18/15 A3001 RMK A01 T01780149  RH  083%=      5-min Rain = 0
KCO1 141205Z 12003KT 18/15 A30 RMK A01 T01780149  RH  083%=      5-min Rain = 0
KCO1 141206Z 12003KT 18/15 A30 RMK A01 T01770149  RH  083%=      5-min Rain = 0
KCO1 141207Z 12004KT 18/15 A30 RMK A01 T01770149  RH  083%=      5-min Rain = 0
KCO1 141208Z 12004KT 18/15 A30 RMK A01 T01770149  RH  083%=      5-min Rain = 0
KCO1 141209Z 11004KT 18/15 A30 RMK A01 T01770149  RH  084%=      5-min Rain = 0
KCO1 141210Z 11004KT 18/15 A30 RMK A01 T01780150  RH  084%=      5-min Rain = 0
KCO1 141211Z 11004KT 18/15 A30 RMK A01 T01770151  RH  084%=      5-min Rain = 0
KCO1 141212Z 12004KT 18/15 A30 RMK A01 T01770152  RH  085%=      5-min Rain = 0
KCO1 141213Z 12004KT 18/15 A30 RMK A01 T01770152  RH  085%=      5-min Rain = 0
KCO1 141214Z 12004KT 18/15 A30 RMK A01 T01760152  RH  086%=      5-min Rain = 0
KCO1 141215Z 12004KT 18/15 A30 RMK A01 T01760153  RH  086%=      5-min Rain = 0.01
KCO1 141216Z 13004KT 18/15 A30 RMK A01 T01760153  RH  087%=      5-min Rain = 0
KCO1 141217Z 13004KT 18/15 A30 RMK A01 T01750153  RH  087%=      5-min Rain = 0
KCO1 141218Z 12004KT 18/15 A30 RMK A01 T01750154  RH  087%=      5-min Rain = 0
KCO1 141219Z 12005KT 18/16 A30 RMK A01 T01760155  RH  088%=      5-min Rain = 0
KCO1 141220Z 12005KT 18/16 A30 RMK A01 T01750155  RH  088%=      5-min Rain = 0
KCO1 141221Z 12005KT 18/16 A30 RMK A01 T01750156  RH  088%=      5-min Rain = 0
KCO1 141222Z 12004KT 18/16 A30 RMK A01 T01750155  RH  088%=      5-min Rain = 0
KCO1 141223Z 12004KT 18/16 A30 RMK A01 T01750155  RH  088%=      5-min Rain = 0
KCO1 141224Z 12005KT 18/16 A30 RMK A01 T01750155  RH  088%=      5-min Rain = 0.01
KCO1 141225Z 12005KT 17/16 A30 RMK A01 T01740155  RH  089%=      5-min Rain = 0
KCO1 141226Z 13004KT 17/16 A30 RMK A01 T01740155  RH  089%=      5-min Rain = 0
KCO1 141227Z 13003KT 17/16 A3001 RMK A01 T01740156  RH  089%=      5-min Rain = 0
KCO1 141228Z 13004KT 17/16 A3001 RMK A01 T01740157  RH  089%=      5-min Rain = 0
KCO1 141229Z 14003KT 17/16 A3001 RMK A01 T01740157  RH  090%=      5-min Rain = 0
KCO1 141230Z 13004KT 17/16 A3001 RMK A01 T01740158  RH  090%=      5-min Rain = 0
KCO1 141231Z 14004KT 17/16 A3001 RMK A01 T01740158  RH  090%=      5-min Rain = 0
KCO1 141232Z 15004KT 17/16 A3001 RMK A01 T01740158  RH  090%=      5-min Rain = 0
KCO1 141233Z 15005KT 17/16 A3001 RMK A01 T01740159  RH  091%=      5-min Rain = 0
KCO1 141234Z 15004KT 17/16 A3001 RMK A01 T01740159  RH  091%=      5-min Rain = 0
KCO1 141235Z 16005KT 18/16 A3001 RMK A01 T01750159  RH  091%=      5-min Rain = 0
KCO1 141236Z 16005KT 18/16 A3001 RMK A01 T01750160  RH  091%=      5-min Rain = 0
KCO1 141237Z 17006KT 18/16 A3001 RMK A01 T01760160  RH  090%=      5-min Rain = 0
KCO1 141238Z 17006KT 18/16 A3001 RMK A01 T01780162  RH  090%=      5-min Rain = 0
KCO1 141239Z 17006KT 18/16 A3001 RMK A01 T01790162  RH  090%=      5-min Rain = 0
KCO1 141240Z 17005KT 18/16 A3001 RMK A01 T01790162  RH  089%=      5-min Rain = 0
KCO1 141241Z 17005KT 18/16 A3001 RMK A01 T01800161  RH  089%=      5-min Rain = 0
KCO1 141242Z 16005KT 18/16 A3001 RMK A01 T01800161  RH  089%=      5-min Rain = 0
KCO1 141243Z 17006KT 18/16 A3001 RMK A01 T01810162  RH  089%=      5-min Rain = 0
KCO1 141244Z 17006KT 18/16 A3001 RMK A01 T01810162  RH  089%=      5-min Rain = 0
KCO1 141245Z 16006KT 18/16 A3001 RMK A01 T01800162  RH  089%=      5-min Rain = 0
KCO1 141246Z 16006KT 18/16 A3001 RMK A01 T01810162  RH  089%=      5-min Rain = 0
KCO1 141247Z 17006KT 18/16 A3001 RMK A01 T01810163  RH  089%=      5-min Rain = 0
KCO1 141248Z 17006KT 18/16 A3001 RMK A01 T01810163  RH  089%=      5-min Rain = 0
KCO1 141249Z 17006KT 18/16 A3001 RMK A01 T01810164  RH  089%=      5-min Rain = 0
KCO1 141250Z 17006KT 18/16 A3001 RMK A01 T01820164  RH  089%=      5-min Rain = 0
KCO1 141251Z 17006KT 18/16 A3001 RMK A01 T01820164  RH  089%=      5-min Rain = 0
KCO1 141252Z 17007KT 18/17 A3001 RMK A01 T01820165  RH  090%=      5-min Rain = 0
KCO1 141253Z 16007KT 18/17 A3001 RMK A01 T01820165  RH  090%=      5-min Rain = 0.01
KCO1 141254Z 16007KT 18/17 A3001 RMK A01 T01820166  RH  090%=      5-min Rain = 0
KCO1 141255Z 16007KT 18/17 A3001 RMK A01 T01820166  RH  090%=      5-min Rain = 0
KCO1 141256Z 16007KT 18/17 A3001 RMK A01 T01820166  RH  090%=      5-min Rain = 0
KCO1 141257Z 17007KT 18/17 A3001 RMK A01 T01820167  RH  091%=      5-min Rain = 0
KCO1 141258Z 17007KT 18/17 A3001 RMK A01 T01820168  RH  091%=      5-min Rain = 0
KCO1 141259Z 17007KT 18/17 A3001 RMK A01 T01830168  RH  091%=      5-min Rain = 0
KCO1 141300Z 17007KT 18/17 A3001 RMK A01 T01820168  RH  091%=      5-min Rain = 0
KCO1 141301Z 17006KT 18/17 A3001 RMK A01 T01830169  RH  092%=      5-min Rain = 0
KCO1 141302Z 17006KT 18/17 A3001 RMK A01 T01820168  RH  092%=      5-min Rain = 0
KCO1 141303Z 17006KT 18/17 A3001 RMK A01 T01820169  RH  092%=      5-min Rain = 0
KCO1 141304Z 17006KT 18/17 A3001 RMK A01 T01830169  RH  092%=      5-min Rain = 0
KCO1 141305Z 18007KT 18/17 A3001 RMK A01 T01830170  RH  092%=      5-min Rain = 0
KCO1 141306Z 18007KT 18/17 A3001 RMK A01 T01830170  RH  092%=      5-min Rain = 0
KCO1 141307Z 17007KT 18/17 A3001 RMK A01 T01830170  RH  092%=      5-min Rain = 0
KCO1 141308Z 17007KT 18/17 A3001 RMK A01 T01830170  RH  092%=      5-min Rain = 0
KCO1 141309Z 17008KT 18/17 A3001 RMK A01 T01830170  RH  092%=      5-min Rain = 0
KCO1 141310Z 17008KT 18/17 A3002 RMK A01 T01830170  RH  092%=      5-min Rain = 0
KCO1 141311Z 18008KT 18/17 A3002 RMK A01 T01830170  RH  092%=      5-min Rain = 0
KCO1 141312Z 18008KT 18/17 A3002 RMK A01 T01830170  RH  092%=      5-min Rain = 0
KCO1 141313Z 18007KT 18/17 A3002 RMK A01 T01830170  RH  092%=      5-min Rain = 0
KCO1 141314Z 18008KT 18/17 A3002 RMK A01 T01830170  RH  092%=      5-min Rain = 0
KCO1 141315Z 18008KT 18/17 A3002 RMK A01 T01830170  RH  092%=      5-min Rain = 0.01
KCO1 141316Z 18008KT 18/17 A3002 RMK A01 T01830170  RH  092%=      5-min Rain = 0
KCO1 141317Z 18008KT 18/17 A3002 RMK A01 T01840170  RH  092%=      5-min Rain = 0
KCO1 141318Z 18008KT 18/17 A3002 RMK A01 T01840170  RH  092%=      5-min Rain = 0
KCO1 141319Z 17009KT 18/17 A3001 RMK A01 T01840170  RH  092%=      5-min Rain = 0
KCO1 141320Z 17008KT 18/17 A3001 RMK A01 T01840170  RH  092%=      5-min Rain = 0
KCO1 141321Z 18009KT 18/17 A3001 RMK A01 T01840170  RH  091%=      5-min Rain = 0
KCO1 141322Z 17010KT 18/17 A3001 RMK A01 T01840169  RH  091%=      5-min Rain = 0
KCO1 141323Z 17009KT 18/17 A3001 RMK A01 T01840169  RH  091%=      5-min Rain = 0
KCO1 141324Z 17008KT 18/17 A3001 RMK A01 T01840169  RH  091%=      5-min Rain = 0
KCO1 141325Z 17009KT 18/17 A3001 RMK A01 T01840169  RH  091%=      5-min Rain = 0
KCO1 141326Z 17008KT 18/17 A3001 RMK A01 T01840169  RH  091%=      5-min Rain = 0
KCO1 141327Z 17008KT 18/17 A3001 RMK A01 T01840169  RH  091%=      5-min Rain = 0
KCO1 141328Z 17008KT 18/17 A3001 RMK A01 T01840169  RH  091%=      5-min Rain = 0
KCO1 141329Z 17008KT 18/17 A3001 RMK A01 T01840169  RH  091%=      5-min Rain = 0
KCO1 141330Z 17009KT 18/17 A3001 RMK A01 T01840170  RH  091%=      5-min Rain = 0
KCO1 141331Z 16009KT 19/17 A3001 RMK A01 T01850170  RH  091%=      5-min Rain = 0
KCO1 141332Z 17009KT 18/17 A3001 RMK A01 T01840170  RH  091%=      5-min Rain = 0
KCO1 141333Z 17009KT 18/17 A3001 RMK A01 T01840169  RH  091%=      5-min Rain = 0
KCO1 141334Z 17009KT 18/17 A3001 RMK A01 T01840169  RH  091%=      5-min Rain = 0
KCO1 141335Z 17009KT 18/17 A3001 RMK A01 T01840169  RH  091%=      5-min Rain = 0
KCO1 141336Z 17010KT 18/17 A3001 RMK A01 T01840170  RH  091%=      5-min Rain = 0
KCO1 141337Z 16009KT 19/17 A3001 RMK A01 T01850169  RH  091%=      5-min Rain = 0
KCO1 141338Z 17009KT 19/17 A3001 RMK A01 T01850169  RH  091%=      5-min Rain = 0
KCO1 141339Z 17009KT 19/17 A3001 RMK A01 T01850169  RH  091%=      5-min Rain = 0
KCO1 141340Z 17010KT 19/17 A3001 RMK A01 T01850170  RH  091%=      5-min Rain = 0
KCO1 141341Z 17009KT 19/17 A3001 RMK A01 T01850170  RH  091%=      5-min Rain = 0
KCO1 141342Z 16010KT 19/17 A3001 RMK A01 T01850170  RH  091%=      5-min Rain = 0
KCO1 141343Z 17009KT 19/17 A3001 RMK A01 T01850170  RH  091%=      5-min Rain = 0
KCO1 141344Z 17010KT 19/17 A3002 RMK A01 T01850170  RH  091%=      5-min Rain = 0
KCO1 141345Z 17009KT 19/17 A3001 RMK A01 T01850170  RH  091%=      5-min Rain = 0
KCO1 141346Z 17009KT 19/17 A3002 RMK A01 T01850170  RH  091%=      5-min Rain = 0
KCO1 141347Z 17009KT 19/17 A3002 RMK A01 T01850170  RH  091%=      5-min Rain = 0
KCO1 141348Z 18008KT 19/17 A3002 RMK A01 T01850170  RH  091%=      5-min Rain = 0
KCO1 141349Z 17009KT 19/17 A3002 RMK A01 T01850171  RH  091%=      5-min Rain = 0
KCO1 141350Z 18009KT 19/17 A3002 RMK A01 T01860171  RH  091%=      5-min Rain = 0
KCO1 141351Z 17008KT 19/17 A3002 RMK A01 T01860171  RH  091%=      5-min Rain = 0
KCO1 141352Z 18007KT 19/17 A3002 RMK A01 T01860171  RH  091%=      5-min Rain = 0
KCO1 141353Z 18009KT 19/17 A3002 RMK A01 T01860171  RH  091%=      5-min Rain = 0
KCO1 141354Z 18008KT 19/17 A3002 RMK A01 T01860171  RH  091%=      5-min Rain = 0
KCO1 141355Z 17008KT 19/17 A3002 RMK A01 T01860171  RH  091%=      5-min Rain = 0
KCO1 141356Z 17008KT 19/17 A3002 RMK A01 T01860171  RH  091%=      5-min Rain = 0
KCO1 141357Z 17008KT 19/17 A3002 RMK A01 T01860172  RH  091%=      5-min Rain = 0
KCO1 141358Z 17009KT 19/17 A3002 RMK A01 T01860171  RH  091%=      5-min Rain = 0
KCO1 141359Z 17008KT 19/17 A3002 RMK A01 T01860172  RH  091%=      5-min Rain = 0
KCO1 141400Z 17008KT 19/17 A3002 RMK A01 T01860171  RH  091%=      5-min Rain = 0
KCO1 141401Z 17008KT 19/17 A3002 RMK A01 T01870172  RH  091%=      5-min Rain = 0
KCO1 141402Z 18007KT 19/17 A3002 RMK A01 T01870172  RH  091%=      5-min Rain = 0
KCO1 141403Z 17008KT 19/17 A3003 RMK A01 T01860172  RH  091%=      5-min Rain = 0
KCO1 141404Z 17009KT 19/17 A3003 RMK A01 T01870172  RH  091%=      5-min Rain = 0
KCO1 141405Z 17008KT 19/17 A3003 RMK A01 T01870173  RH  091%=      5-min Rain = 0
KCO1 141406Z 17009KT 19/17 A3003 RMK A01 T01860172  RH  091%=      5-min Rain = 0
KCO1 141407Z 17007KT 19/17 A3003 RMK A01 T01860172  RH  091%=      5-min Rain = 0
KCO1 141408Z 17008KT 19/17 A3002 RMK A01 T01870173  RH  091%=      5-min Rain = 0
KCO1 141409Z 17007KT 19/17 A3002 RMK A01 T01860172  RH  091%=      5-min Rain = 0
KCO1 141410Z 17008KT 19/17 A3002 RMK A01 T01860172  RH  091%=      5-min Rain = 0
KCO1 141411Z 17008KT 19/17 A3002 RMK A01 T01870172  RH  091%=      5-min Rain = 0
KCO1 141412Z 17008KT 19/17 A3002 RMK A01 T01870172  RH  091%=      5-min Rain = 0
KCO1 141413Z 16008KT 19/17 A3002 RMK A01 T01870172  RH  091%=      5-min Rain = 0
KCO1 141414Z 16008KT 19/17 A3002 RMK A01 T01860172  RH  091%=      5-min Rain = 0
KCO1 141415Z 16009KT 19/17 A3002 RMK A01 T01870172  RH  091%=      5-min Rain = 0
KCO1 141416Z 16008KT 19/17 A3002 RMK A01 T01860172  RH  091%=      5-min Rain = 0
KCO1 141417Z 16009KT 19/17 A3002 RMK A01 T01870172  RH  091%=      5-min Rain = 0
KCO1 141418Z 16009KT 19/17 A3002 RMK A01 T01860171  RH  091%=      5-min Rain = 0
KCO1 141419Z 16009KT 19/17 A3002 RMK A01 T01870171  RH  091%=      5-min Rain = 0
KCO1 141420Z 16010KT 19/17 A3002 RMK A01 T01870171  RH  091%=      5-min Rain = 0.01
KCO1 141421Z 16008KT 19/17 A3002 RMK A01 T01870171  RH  090%=      5-min Rain = 0
KCO1 141422Z 16007KT 19/17 A3002 RMK A01 T01870170  RH  090%=      5-min Rain = 0
KCO1 141423Z 15006KT 19/17 A3002 RMK A01 T01880171  RH  090%=      5-min Rain = 0
KCO1 141424Z 16006KT 19/17 A3002 RMK A01 T01880172  RH  090%=      5-min Rain = 0
KCO1 141425Z 16006KT 19/17 A3002 RMK A01 T01880173  RH  091%=      5-min Rain = 0
KCO1 141426Z 16007KT 19/17 A3002 RMK A01 T01880173  RH  091%=      5-min Rain = 0
KCO1 141427Z 16007KT 19/17 A3002 RMK A01 T01880174  RH  091%=      5-min Rain = 0
KCO1 141428Z 16007KT 19/17 A3002 RMK A01 T01880174  RH  091%=      5-min Rain = 0
KCO1 141429Z 16007KT 19/18 A3002 RMK A01 T01880175  RH  092%=      5-min Rain = 0
KCO1 141430Z 17010KT 19/18 A3002 RMK A01 T01880175  RH  092%=      5-min Rain = 0
KCO1 141431Z 16010KT 19/17 A3002 RMK A01 T01880173  RH  091%=      5-min Rain = 0
KCO1 141432Z 16011KT 19/17 A3002 RMK A01 T01880172  RH  091%=      5-min Rain = 0
KCO1 141433Z 17011KT 19/17 A3002 RMK A01 T01880172  RH  090%=      5-min Rain = 0
KCO1 141434Z 17011KT 19/17 A3002 RMK A01 T01880172  RH  090%=      5-min Rain = 0
KCO1 141435Z 17010KT 19/17 A3002 RMK A01 T01880172  RH  090%=      5-min Rain = 0
KCO1 141436Z 17010KT 19/17 A3002 RMK A01 T01880173  RH  091%=      5-min Rain = 0
KCO1 141437Z 17011KT 19/17 A3003 RMK A01 T01880174  RH  091%=      5-min Rain = 0
KCO1 141438Z 18010KT 19/17 A3003 RMK A01 T01880174  RH  091%=      5-min Rain = 0
KCO1 141439Z 18012KT 19/17 A3003 RMK A01 T01880174  RH  091%=      5-min Rain = 0
KCO1 141440Z 17010KT 19/17 A3003 RMK A01 T01880173  RH  091%=      5-min Rain = 0
KCO1 141441Z 18010KT 19/17 A3003 RMK A01 T01880173  RH  091%=      5-min Rain = 0
KCO1 141442Z 17009KT 19/17 A3003 RMK A01 T01890173  RH  090%=      5-min Rain = 0
KCO1 141443Z 18009KT 19/17 A3003 RMK A01 T01890173  RH  090%=      5-min Rain = 0
KCO1 141444Z 18009KT 19/17 A3003 RMK A01 T01890174  RH  091%=      5-min Rain = 0
KCO1 141445Z 18009KT 19/17 A3003 RMK A01 T01890174  RH  091%=      5-min Rain = 0
KCO1 141446Z 18009KT 19/17 A3003 RMK A01 T01890174  RH  091%=      5-min Rain = 0
KCO1 141447Z 18010KT 19/17 A3003 RMK A01 T01890174  RH  091%=      5-min Rain = 0
KCO1 141448Z 18009KT 19/17 A3003 RMK A01 T01900174  RH  091%=      5-min Rain = 0
KCO1 141449Z 18010KT 19/17 A3003 RMK A01 T01900174  RH  091%=      5-min Rain = 0
KCO1 141450Z 18008KT 19/17 A3003 RMK A01 T01900174  RH  090%=      5-min Rain = 0
KCO1 141451Z 18008KT 19/17 A3003 RMK A01 T01900174  RH  090%=      5-min Rain = 0
KCO1 141452Z 18009KT 19/17 A3003 RMK A01 T01900173  RH  090%=      5-min Rain = 0
KCO1 141453Z 17010KT 19/17 A3003 RMK A01 T01900172  RH  089%=      5-min Rain = 0
KCO1 141454Z 17009KT 19/17 A3003 RMK A01 T01910172  RH  089%=      5-min Rain = 0
KCO1 141455Z 17009KT 19/17 A3003 RMK A01 T01910172  RH  089%=      5-min Rain = 0
KCO1 141456Z 17009KT 19/17 A3003 RMK A01 T01910172  RH  088%=      5-min Rain = 0
KCO1 141457Z 17009KT 19/17 A3003 RMK A01 T01910171  RH  088%=      5-min Rain = 0
KCO1 141458Z 18008KT 19/17 A3003 RMK A01 T01910171  RH  088%=      5-min Rain = 0
KCO1 141459Z 17008KT 19/17 A3003 RMK A01 T01920172  RH  088%=      5-min Rain = 0
KCO1 141500Z 18010KT 19/17 A3003 RMK A01 T01920172  RH  088%=      5-min Rain = 0
KCO1 141501Z 18008KT 19/17 A3003 RMK A01 T01920172  RH  088%=      5-min Rain = 0
KCO1 141502Z 17008KT 19/17 A3003 RMK A01 T01920172  RH  088%=      5-min Rain = 0
KCO1 141503Z 18008KT 19/17 A3003 RMK A01 T01920173  RH  088%=      5-min Rain = 0
KCO1 141504Z 17008KT 19/17 A3003 RMK A01 T01920173  RH  088%=      5-min Rain = 0
KCO1 141505Z 17009KT 19/17 A3003 RMK A01 T01930173  RH  088%=      5-min Rain = 0
KCO1 141506Z 17010KT 19/17 A3003 RMK A01 T01930172  RH  088%=      5-min Rain = 0
KCO1 141507Z 17008KT 19/17 A3003 RMK A01 T01920172  RH  088%=      5-min Rain = 0
KCO1 141508Z 17008KT 19/17 A3003 RMK A01 T01920173  RH  089%=      5-min Rain = 0
KCO1 141509Z 17009KT 19/17 A3003 RMK A01 T01930173  RH  089%=      5-min Rain = 0
KCO1 141510Z 17009KT 19/17 A3003 RMK A01 T01920173  RH  089%=      5-min Rain = 0
KCO1 141511Z 17008KT 19/17 A3003 RMK A01 T01930174  RH  089%=      5-min Rain = 0
KCO1 141512Z 17010KT 19/17 A3003 RMK A01 T01920173  RH  089%=      5-min Rain = 0
KCO1 141513Z 17009KT 19/17 A3003 RMK A01 T01920172  RH  088%=      5-min Rain = 0
KCO1 141514Z 17009KT 19/17 A3003 RMK A01 T01920173  RH  089%=      5-min Rain = 0
KCO1 141515Z 18010KT 19/17 A3003 RMK A01 T01920172  RH  089%=      5-min Rain = 0
KCO1 141516Z 17009KT 19/17 A3003 RMK A01 T01920172  RH  088%=      5-min Rain = 0
KCO1 141517Z 17008KT 19/17 A3003 RMK A01 T01920173  RH  088%=      5-min Rain = 0
KCO1 141518Z 18009KT 19/17 A3003 RMK A01 T01920173  RH  089%=      5-min Rain = 0
KCO1 141519Z 18009KT 19/17 A3003 RMK A01 T01920173  RH  089%=      5-min Rain = 0
KCO1 141520Z 18008KT 19/17 A3003 RMK A01 T01930173  RH  089%=      5-min Rain = 0
KCO1 141521Z 18008KT 19/17 A3003 RMK A01 T01920173  RH  089%=      5-min Rain = 0
KCO1 141522Z 18006KT 19/17 A3003 RMK A01 T01930174  RH  089%=      5-min Rain = 0
KCO1 141523Z 19007KT 19/17 A3003 RMK A01 T01930174  RH  089%=      5-min Rain = 0
KCO1 141524Z 18007KT 19/17 A3003 RMK A01 T01930174  RH  089%=      5-min Rain = 0
KCO1 141525Z 19008KT 19/17 A3003 RMK A01 T01930174  RH  089%=      5-min Rain = 0
KCO1 141526Z 19007KT 19/17 A3003 RMK A01 T01930174  RH  089%=      5-min Rain = 0
KCO1 141527Z 19007KT 19/18 A3004 RMK A01 T01930175  RH  089%=      5-min Rain = 0
KCO1 141528Z 19007KT 19/18 A3004 RMK A01 T01930175  RH  089%=      5-min Rain = 0
KCO1 141529Z 19007KT 19/18 A3004 RMK A01 T01940175  RH  089%=      5-min Rain = 0
KCO1 141530Z 19007KT 19/18 A3004 RMK A01 T01940175  RH  089%=      5-min Rain = 0
KCO1 141531Z 19007KT 19/18 A3004 RMK A01 T01930175  RH  089%=      5-min Rain = 0
KCO1 141532Z 20007KT 19/18 A3004 RMK A01 T01930176  RH  089%=      5-min Rain = 0
KCO1 141533Z 20008KT 19/18 A3004 RMK A01 T01940176  RH  089%=      5-min Rain = 0
KCO1 141534Z 20007KT 19/18 A3004 RMK A01 T01940177  RH  089%=      5-min Rain = 0
KCO1 141535Z 20008KT 19/18 A3004 RMK A01 T01940176  RH  089%=      5-min Rain = 0
KCO1 141536Z 19008KT 20/18 A3004 RMK A01 T01950176  RH  089%=      5-min Rain = 0
KCO1 141537Z 20007KT 20/18 A3004 RMK A01 T01950176  RH  089%=      5-min Rain = 0
KCO1 141538Z 20007KT 20/18 A3004 RMK A01 T01950176  RH  089%=      5-min Rain = 0
KCO1 141539Z 20007KT 20/18 A3004 RMK A01 T01950176  RH  089%=      5-min Rain = 0
KCO1 141540Z 20008KT 20/18 A3004 RMK A01 T01950177  RH  089%=      5-min Rain = 0
KCO1 141541Z 19008KT 20/18 A3004 RMK A01 T01960176  RH  088%=      5-min Rain = 0
KCO1 141542Z 20008KT 20/18 A3004 RMK A01 T01960177  RH  089%=      5-min Rain = 0
KCO1 141543Z 20008KT 20/18 A3004 RMK A01 T01960177  RH  089%=      5-min Rain = 0
KCO1 141544Z 20010KT 20/18 A3004 RMK A01 T01960177  RH  089%=      5-min Rain = 0
KCO1 141545Z 19009KT 20/18 A3004 RMK A01 T01960176  RH  088%=      5-min Rain = 0
KCO1 141546Z 19010KT 20/18 A3004 RMK A01 T01960175  RH  087%=      5-min Rain = 0
KCO1 141547Z 19009KT 20/18 A3004 RMK A01 T01960175  RH  087%=      5-min Rain = 0
KCO1 141548Z 19008KT 20/18 A3004 RMK A01 T01970175  RH  087%=      5-min Rain = 0
KCO1 141549Z 19008KT 20/17 A3004 RMK A01 T01970174  RH  087%=      5-min Rain = 0
KCO1 141550Z 19007KT 20/17 A3004 RMK A01 T01960174  RH  087%=      5-min Rain = 0
KCO1 141551Z 19008KT 20/17 A3004 RMK A01 T01970174  RH  087%=      5-min Rain = 0
KCO1 141552Z 19007KT 20/17 A3004 RMK A01 T01970174  RH  087%=      5-min Rain = 0
KCO1 141553Z 19008KT 20/18 A3004 RMK A01 T01970175  RH  088%=      5-min Rain = 0
KCO1 141554Z 19008KT 20/18 A3004 RMK A01 T01970175  RH  087%=      5-min Rain = 0
KCO1 141555Z 19008KT 20/18 A3004 RMK A01 T01970176  RH  088%=      5-min Rain = 0.01
KCO1 141556Z 20009KT 20/18 A3004 RMK A01 T01970176  RH  088%=      5-min Rain = 0
KCO1 141557Z 19008KT 20/18 A3004 RMK A01 T01970176  RH  088%=      5-min Rain = 0
KCO1 141558Z 19008KT 20/18 A3004 RMK A01 T01960175  RH  088%=      5-min Rain = 0
KCO1 141559Z 19008KT 20/18 A3004 RMK A01 T01970175  RH  087%=      5-min Rain = 0
KCO1 141600Z 19008KT 20/17 A3004 RMK A01 T01970174  RH  087%=      5-min Rain = 0
KCO1 141601Z 20009KT 20/17 A3004 RMK A01 T01970174  RH  087%=      5-min Rain = 0
KCO1 141602Z 20009KT 20/18 A3004 RMK A01 T01970175  RH  087%=      5-min Rain = 0
KCO1 141603Z 20008KT 20/17 A3004 RMK A01 T01970174  RH  086%=      5-min Rain = 0
KCO1 141604Z 20008KT 20/18 A3004 RMK A01 T01980175  RH  087%=      5-min Rain = 0
KCO1 141605Z 20009KT 20/17 A3004 RMK A01 T01970174  RH  087%=      5-min Rain = 0
KCO1 141606Z 19008KT 20/17 A3004 RMK A01 T01980174  RH  086%=      5-min Rain = 0
KCO1 141607Z 19008KT 20/18 A3004 RMK A01 T01980175  RH  087%=      5-min Rain = 0
KCO1 141608Z 19008KT 20/18 A3004 RMK A01 T01980175  RH  086%=      5-min Rain = 0
KCO1 141609Z 19008KT 20/18 A3004 RMK A01 T01990175  RH  086%=      5-min Rain = 0
KCO1 141610Z 19007KT 20/18 A3004 RMK A01 T01990175  RH  086%=      5-min Rain = 0
KCO1 141611Z 19007KT 20/18 A3004 RMK A01 T01990176  RH  086%=      5-min Rain = 0
KCO1 141612Z 19007KT 20/18 A3004 RMK A01 T02000177  RH  087%=      5-min Rain = 0
KCO1 141613Z 19006KT 20/18 A3004 RMK A01 T02000177  RH  087%=      5-min Rain = 0
KCO1 141614Z 19006KT 20/18 A3004 RMK A01 T02000178  RH  087%=      5-min Rain = 0
KCO1 141615Z 19006KT 20/18 A3004 RMK A01 T02010179  RH  087%=      5-min Rain = 0
KCO1 141616Z 20008KT 20/18 A3004 RMK A01 T02010179  RH  087%=      5-min Rain = 0
KCO1 141617Z 20007KT 20/18 A3004 RMK A01 T02010178  RH  087%=      5-min Rain = 0
KCO1 141618Z 19007KT 20/18 A3005 RMK A01 T02010178  RH  086%=      5-min Rain = 0
KCO1 141619Z 19008KT 20/18 A3005 RMK A01 T02010178  RH  086%=      5-min Rain = 0
KCO1 141620Z 19007KT 20/18 A3005 RMK A01 T02010178  RH  086%=      5-min Rain = 0
KCO1 141621Z 19006KT 20/18 A3004 RMK A01 T02010179  RH  087%=      5-min Rain = 0
KCO1 141622Z 20007KT 20/18 A3004 RMK A01 T02020179  RH  087%=      5-min Rain = 0
KCO1 141623Z 19007KT 20/18 A3005 RMK A01 T02020179  RH  087%=      5-min Rain = 0
KCO1 141624Z 20007KT 20/18 A3005 RMK A01 T02010178  RH  086%=      5-min Rain = 0
KCO1 141625Z 20007KT 20/18 A3005 RMK A01 T02010177  RH  086%=      5-min Rain = 0
KCO1 141626Z 20006KT 20/18 A3005 RMK A01 T02010178  RH  086%=      5-min Rain = 0
KCO1 141627Z 20006KT 20/18 A3005 RMK A01 T02010177  RH  086%=      5-min Rain = 0
KCO1 141628Z 20005KT 20/18 A3005 RMK A01 T02020178  RH  086%=      5-min Rain = 0
KCO1 141629Z 20006KT 20/18 A3005 RMK A01 T02020178  RH  086%=      5-min Rain = 0
KCO1 141630Z 21005KT 20/18 A3005 RMK A01 T02020178  RH  086%=      5-min Rain = 0
KCO1 141631Z 21004KT 20/18 A3005 RMK A01 T02030179  RH  086%=      5-min Rain = 0
KCO1 141632Z 20005KT 20/18 A3005 RMK A01 T02030180  RH  086%=      5-min Rain = 0
KCO1 141633Z 19007KT 20/18 A3005 RMK A01 T02030178  RH  086%=      5-min Rain = 0
KCO1 141634Z 20005KT 20/18 A3005 RMK A01 T02030178  RH  085%=      5-min Rain = 0
KCO1 141635Z 20006KT 20/18 A3005 RMK A01 T02040180  RH  086%=      5-min Rain = 0
KCO1 141636Z 19006KT 21/18 A3005 RMK A01 T02050179  RH  085%=      5-min Rain = 0
KCO1 141637Z 20006KT 21/18 A3005 RMK A01 T02050180  RH  085%=      5-min Rain = 0
KCO1 141638Z 20007KT 21/18 A3005 RMK A01 T02050180  RH  085%=      5-min Rain = 0
KCO1 141639Z 20007KT 21/18 A3005 RMK A01 T02050179  RH  085%=      5-min Rain = 0
KCO1 141640Z 20008KT 21/18 A3005 RMK A01 T02050178  RH  085%=      5-min Rain = 0
KCO1 141641Z 20007KT 21/18 A3005 RMK A01 T02060179  RH  085%=      5-min Rain = 0
KCO1 141642Z 19006KT 21/18 A3005 RMK A01 T02060178  RH  084%=      5-min Rain = 0
KCO1 141643Z 20006KT 21/18 A3005 RMK A01 T02060179  RH  085%=      5-min Rain = 0
KCO1 141644Z 20007KT 21/18 A3005 RMK A01 T02060178  RH  084%=      5-min Rain = 0
KCO1 141645Z 19006KT 21/18 A3005 RMK A01 T02060179  RH  084%=      5-min Rain = 0
KCO1 141646Z 19008KT 21/18 A3005 RMK A01 T02070180  RH  085%=      5-min Rain = 0
KCO1 141647Z 20008KT 21/18 A3005 RMK A01 T02070178  RH  084%=      5-min Rain = 0
KCO1 141648Z 20008KT 21/18 A3005 RMK A01 T02070179  RH  084%=      5-min Rain = 0
KCO1 141649Z 19006KT 21/18 A3005 RMK A01 T02070178  RH  084%=      5-min Rain = 0
KCO1 141650Z 19008KT 21/18 A3004 RMK A01 T02070180  RH  085%=      5-min Rain = 0
KCO1 141651Z 20008KT 21/18 A3004 RMK A01 T02070178  RH  083%=      5-min Rain = 0
KCO1 141652Z 19006KT 21/18 A3004 RMK A01 T02070177  RH  083%=      5-min Rain = 0
KCO1 141653Z 19007KT 21/18 A3004 RMK A01 T02070177  RH  083%=      5-min Rain = 0
KCO1 141654Z 19008KT 21/18 A3004 RMK A01 T02070177  RH  083%=      5-min Rain = 0
KCO1 141655Z 20008KT 21/18 A3004 RMK A01 T02070176  RH  082%=      5-min Rain = 0
KCO1 141656Z 20006KT 21/18 A3004 RMK A01 T02070176  RH  083%=      5-min Rain = 0
KCO1 141657Z 19006KT 21/18 A3004 RMK A01 T02070178  RH  083%=      5-min Rain = 0
KCO1 141658Z 20007KT 21/18 A3004 RMK A01 T02080178  RH  083%=      5-min Rain = 0
KCO1 141659Z 20006KT 21/18 A3004 RMK A01 T02070177  RH  083%=      5-min Rain = 0
KCO1 141700Z 20006KT 21/18 A3004 RMK A01 T02070177  RH  083%=      5-min Rain = 0
KCO1 141701Z 22006KT 21/18 A3004 RMK A01 T02070177  RH  083%=      5-min Rain = 0
KCO1 141702Z 22006KT 21/18 A3004 RMK A01 T02070177  RH  083%=      5-min Rain = 0
KCO1 141703Z 22005KT 21/18 A3004 RMK A01 T02070178  RH  083%=      5-min Rain = 0
KCO1 141704Z 22007KT 21/18 A3004 RMK A01 T02080178  RH  083%=      5-min Rain = 0
KCO1 141705Z 22006KT 21/18 A3004 RMK A01 T02080177  RH  083%=      5-min Rain = 0
KCO1 141706Z 22007KT 21/18 A3004 RMK A01 T02080179  RH  083%=      5-min Rain = 0
KCO1 141707Z 22007KT 21/18 A3004 RMK A01 T02080178  RH  083%=      5-min Rain = 0
KCO1 141708Z 21007KT 21/18 A3004 RMK A01 T02070177  RH  083%=      5-min Rain = 0
KCO1 141709Z 22006KT 21/18 A3004 RMK A01 T02070177  RH  083%=      5-min Rain = 0
KCO1 141710Z 21006KT 21/18 A3004 RMK A01 T02070178  RH  083%=      5-min Rain = 0
KCO1 141711Z 21007KT 21/18 A3004 RMK A01 T02070177  RH  083%=      5-min Rain = 0
KCO1 141712Z 21006KT 21/18 A3004 RMK A01 T02080178  RH  083%=      5-min Rain = 0
KCO1 141713Z 21007KT 21/18 A3004 RMK A01 T02080178  RH  083%=      5-min Rain = 0
KCO1 141714Z 21006KT 21/18 A3004 RMK A01 T02080178  RH  083%=      5-min Rain = 0
KCO1 141715Z 21008KT 21/18 A3004 RMK A01 T02090178  RH  083%=      5-min Rain = 0
KCO1 141716Z 21008KT 21/18 A3004 RMK A01 T02090178  RH  082%=      5-min Rain = 0
KCO1 141717Z 22008KT 21/18 A3004 RMK A01 T02090178  RH  082%=      5-min Rain = 0
KCO1 141718Z 21008KT 21/18 A3004 RMK A01 T02100178  RH  082%=      5-min Rain = 0
KCO1 141719Z 22008KT 21/18 A3004 RMK A01 T02090178  RH  082%=      5-min Rain = 0
KCO1 141720Z 21007KT 21/18 A3004 RMK A01 T02090177  RH  082%=      5-min Rain = 0
KCO1 141721Z 21007KT 21/18 A3004 RMK A01 T02090179  RH  083%=      5-min Rain = 0
KCO1 141722Z 20006KT 21/18 A3004 RMK A01 T02090180  RH  084%=      5-min Rain = 0
KCO1 141723Z 20007KT 21/18 A3004 RMK A01 T02090180  RH  083%=      5-min Rain = 0
KCO1 141724Z 20008KT 21/18 A3004 RMK A01 T02090180  RH  084%=      5-min Rain = 0
KCO1 141725Z 19007KT 21/18 A3003 RMK A01 T02080180  RH  084%=      5-min Rain = 0
KCO1 141726Z 19008KT 21/18 A3003 RMK A01 T02080180  RH  084%=      5-min Rain = 0
KCO1 141727Z 19008KT 21/18 A3003 RMK A01 T02080180  RH  084%=      5-min Rain = 0
KCO1 141728Z 19007KT 21/18 A3003 RMK A01 T02080179  RH  084%=      5-min Rain = 0
KCO1 141729Z 19006KT 21/18 A3003 RMK A01 T02080181  RH  085%=      5-min Rain = 0
KCO1 141730Z 18006KT 21/18 A3003 RMK A01 T02080182  RH  085%=      5-min Rain = 0
KCO1 141731Z 18007KT 21/18 A3003 RMK A01 T02080182  RH  085%=      5-min Rain = 0
KCO1 141732Z 18008KT 21/18 A3003 RMK A01 T02080181  RH  084%=      5-min Rain = 0
KCO1 141733Z 18008KT 21/18 A3003 RMK A01 T02090180  RH  084%=      5-min Rain = 0
KCO1 141734Z 19007KT 21/18 A3003 RMK A01 T02090181  RH  084%=      5-min Rain = 0
KCO1 141735Z 19008KT 21/18 A3003 RMK A01 T02080180  RH  084%=      5-min Rain = 0
KCO1 141736Z 18008KT 21/18 A3003 RMK A01 T02090179  RH  083%=      5-min Rain = 0
KCO1 141737Z 18007KT 21/18 A3003 RMK A01 T02090180  RH  083%=      5-min Rain = 0
KCO1 141738Z 19007KT 21/18 A3003 RMK A01 T02100180  RH  083%=      5-min Rain = 0
KCO1 141739Z 19009KT 21/18 A3003 RMK A01 T02100179  RH  083%=      5-min Rain = 0
KCO1 141740Z 19008KT 21/18 A3003 RMK A01 T02100179  RH  082%=      5-min Rain = 0
KCO1 141741Z 19007KT 21/18 A3003 RMK A01 T02100180  RH  083%=      5-min Rain = 0
KCO1 141742Z 18007KT 21/18 A3003 RMK A01 T02110183  RH  084%=      5-min Rain = 0
KCO1 141743Z 18007KT 21/18 A3002 RMK A01 T02120183  RH  084%=      5-min Rain = 0
KCO1 141744Z 18007KT 21/18 A3002 RMK A01 T02120182  RH  083%=      5-min Rain = 0
KCO1 141745Z 18008KT 21/18 A3002 RMK A01 T02130182  RH  082%=      5-min Rain = 0
KCO1 141746Z 18008KT 21/18 A3002 RMK A01 T02130180  RH  081%=      5-min Rain = 0
KCO1 141747Z 18008KT 21/18 A3002 RMK A01 T02130180  RH  081%=      5-min Rain = 0
KCO1 141748Z 18009KT 21/18 A3002 RMK A01 T02130179  RH  081%=      5-min Rain = 0
KCO1 141749Z 18009KT 21/18 A3002 RMK A01 T02130178  RH  081%=      5-min Rain = 0
KCO1 141750Z 18008KT 21/18 A3002 RMK A01 T02130178  RH  080%=      5-min Rain = 0
KCO1 141751Z 18007KT 21/18 A3002 RMK A01 T02140180  RH  081%=      5-min Rain = 0
KCO1 141752Z 18008KT 21/18 A3002 RMK A01 T02140179  RH  080%=      5-min Rain = 0
KCO1 141753Z 18007KT 22/18 A3001 RMK A01 T02150179  RH  080%=      5-min Rain = 0
KCO1 141754Z 17008KT 22/18 A3001 RMK A01 T02160182  RH  081%=      5-min Rain = 0
KCO1 141755Z 17008KT 22/18 A3001 RMK A01 T02170180  RH  080%=      5-min Rain = 0
KCO1 141756Z 17009KT 22/18 A3001 RMK A01 T02170181  RH  080%=      5-min Rain = 0
KCO1 141757Z 17009KT 22/18 A3001 RMK A01 T02180179  RH  078%=      5-min Rain = 0
KCO1 141758Z 17010KT 22/18 A3001 RMK A01 T02180178  RH  078%=      5-min Rain = 0
KCO1 141759Z 17008KT 22/18 A3001 RMK A01 T02180179  RH  078%=      5-min Rain = 0
KCO1 141800Z 17009KT 22/18 A3001 RMK A01 T02180180  RH  079%=      5-min Rain = 0
KCO1 141801Z 17010KT 22/18 A3001 RMK A01 T02180179  RH  078%=      5-min Rain = 0
KCO1 141802Z 17010KT 22/18 A3001 RMK A01 T02190177  RH  077%=      5-min Rain = 0
KCO1 141803Z 17008KT 22/18 A3001 RMK A01 T02190177  RH  077%=      5-min Rain = 0
KCO1 141804Z 18009KT 22/18 A3001 RMK A01 T02200178  RH  077%=      5-min Rain = 0
KCO1 141805Z 17010KT 22/18 A3001 RMK A01 T02200175  RH  076%=      5-min Rain = 0
KCO1 141806Z 18009KT 22/18 A3001 RMK A01 T02200177  RH  076%=      5-min Rain = 0
KCO1 141807Z 18009KT 22/18 A3001 RMK A01 T02210177  RH  076%=      5-min Rain = 0
KCO1 141808Z 18010KT 22/18 A3001 RMK A01 T02220179  RH  076%=      5-min Rain = 0
KCO1 141809Z 18009KT 22/18 A3001 RMK A01 T02230177  RH  075%=      5-min Rain = 0
KCO1 141810Z 18010KT 22/18 A3001 RMK A01 T02230178  RH  076%=      5-min Rain = 0
KCO1 141811Z 18010KT 22/18 A3001 RMK A01 T02230179  RH  076%=      5-min Rain = 0
KCO1 141812Z 18010KT 22/18 A3001 RMK A01 T02230181  RH  077%=      5-min Rain = 0
KCO1 141813Z 17009KT 22/18 A30 RMK A01 T02230179  RH  076%=      5-min Rain = 0
KCO1 141814Z 17010KT 22/18 A30 RMK A01 T02230179  RH  076%=      5-min Rain = 0
KCO1 141815Z 18009KT 22/18 A30 RMK A01 T02240180  RH  076%=      5-min Rain = 0
KCO1 141816Z 17009KT 22/18 A30 RMK A01 T02230179  RH  076%=      5-min Rain = 0
KCO1 141817Z 18008KT 22/18 A30 RMK A01 T02230181  RH  077%=      5-min Rain = 0
KCO1 141818Z 18009KT 22/18 A30 RMK A01 T02240180  RH  076%=      5-min Rain = 0
KCO1 141819Z 18009KT 22/18 A30 RMK A01 T02240179  RH  076%=      5-min Rain = 0
KCO1 141820Z 18008KT 22/18 A30 RMK A01 T02240179  RH  076%=      5-min Rain = 0
KCO1 141821Z 19008KT 22/18 A30 RMK A01 T02240179  RH  076%=      5-min Rain = 0
KCO1 141822Z 19011KT 22/18 A30 RMK A01 T02240178  RH  075%=      5-min Rain = 0
KCO1 141823Z 19009KT 22/18 A30 RMK A01 T02240177  RH  075%=      5-min Rain = 0
KCO1 141824Z 19010KT 22/18 A30 RMK A01 T02240177  RH  075%=      5-min Rain = 0
KCO1 141825Z 19009KT 22/18 A30 RMK A01 T02230177  RH  075%=      5-min Rain = 0
KCO1 141826Z 19008KT 22/18 A30 RMK A01 T02230177  RH  075%=      5-min Rain = 0
KCO1 141827Z 19010KT 22/18 A30 RMK A01 T02230177  RH  075%=      5-min Rain = 0
KCO1 141828Z 19009KT 22/18 A30 RMK A01 T02230177  RH  075%=      5-min Rain = 0
KCO1 141829Z 19009KT 22/18 A30 RMK A01 T02230176  RH  075%=      5-min Rain = 0
KCO1 141830Z 18008KT 22/17 A2999 RMK A01 T02230174  RH  074%=      5-min Rain = 0
KCO1 141831Z 17008KT 22/18 A2999 RMK A01 T02230175  RH  074%=      5-min Rain = 0
KCO1 141832Z 17007KT 22/18 A2999 RMK A01 T02230178  RH  076%=      5-min Rain = 0
KCO1 141833Z 17010KT 22/18 A2999 RMK A01 T02230178  RH  075%=      5-min Rain = 0
KCO1 141834Z 16009KT 22/18 A2999 RMK A01 T02220177  RH  076%=      5-min Rain = 0
KCO1 141835Z 17008KT 22/18 A2999 RMK A01 T02220178  RH  076%=      5-min Rain = 0
KCO1 141836Z 17009KT 22/18 A2999 RMK A01 T02220178  RH  076%=      5-min Rain = 0
KCO1 141837Z 17010KT 22/18 A2999 RMK A01 T02220178  RH  076%=      5-min Rain = 0
KCO1 141838Z 17010KT 22/18 A2999 RMK A01 T02210177  RH  076%=      5-min Rain = 0
KCO1 141839Z 17010KT 22/18 A2999 RMK A01 T02210177  RH  076%=      5-min Rain = 0
KCO1 141840Z 18008KT 22/18 A2999 RMK A01 T02210177  RH  076%=      5-min Rain = 0
KCO1 141841Z 17009KT 22/18 A2999 RMK A01 T02210178  RH  076%=      5-min Rain = 0
KCO1 141842Z 17011KT 22/18 A2999 RMK A01 T02210176  RH  076%=      5-min Rain = 0
KCO1 141843Z 18010KT 22/17 A2999 RMK A01 T02210174  RH  075%=      5-min Rain = 0
KCO1 141844Z 17009KT 22/18 A2999 RMK A01 T02210176  RH  076%=      5-min Rain = 0
KCO1 141845Z 17010KT 22/18 A2999 RMK A01 T02210177  RH  076%=      5-min Rain = 0
KCO1 141846Z 18010KT 22/18 A2998 RMK A01 T02210176  RH  076%=      5-min Rain = 0
KCO1 141847Z 17009KT 22/18 A2998 RMK A01 T02210177  RH  076%=      5-min Rain = 0
KCO1 141848Z 18008KT 22/18 A2998 RMK A01 T02210178  RH  077%=      5-min Rain = 0
KCO1 141849Z 18009KT 22/18 A2998 RMK A01 T02220177  RH  076%=      5-min Rain = 0
KCO1 141850Z 17008KT 22/18 A2998 RMK A01 T02220179  RH  076%=      5-min Rain = 0
KCO1 141851Z 17011KT 22/18 A2998 RMK A01 T02240178  RH  075%=      5-min Rain = 0
KCO1 141852Z 18011KT 22/18 A2998 RMK A01 T02240176  RH  074%=      5-min Rain = 0
KCO1 141853Z 18010KT 22/18 A2998 RMK A01 T02240176  RH  074%=      5-min Rain = 0
KCO1 141854Z 18010KT 22/18 A2998 RMK A01 T02240176  RH  074%=      5-min Rain = 0
KCO1 141855Z 18010KT 22/18 A2998 RMK A01 T02240176  RH  075%=      5-min Rain = 0
KCO1 141856Z 18012KT 22/18 A2998 RMK A01 T02240177  RH  075%=      5-min Rain = 0
KCO1 141857Z 19010KT 22/18 A2998 RMK A01 T02240176  RH  074%=      5-min Rain = 0
KCO1 141858Z 18009KT 22/18 A2998 RMK A01 T02240177  RH  075%=      5-min Rain = 0
KCO1 141859Z 18008KT 22/18 A2998 RMK A01 T02240178  RH  075%=      5-min Rain = 0
KCO1 141900Z 19010KT 23/18 A2998 RMK A01 T02250177  RH  074%=      5-min Rain = 0
KCO1 141901Z 19009KT 23/18 A2998 RMK A01 T02250176  RH  074%=      5-min Rain = 0
KCO1 141902Z 19009KT 23/18 A2998 RMK A01 T02250177  RH  074%=      5-min Rain = 0
KCO1 141903Z 19008KT 23/18 A2998 RMK A01 T02250177  RH  074%=      5-min Rain = 0
KCO1 141904Z 18009KT 23/18 A2998 RMK A01 T02250177  RH  074%=      5-min Rain = 0
KCO1 141905Z 19009KT 23/18 A2998 RMK A01 T02250176  RH  074%=      5-min Rain = 0
KCO1 141906Z 18008KT 23/18 A2998 RMK A01 T02260177  RH  074%=      5-min Rain = 0
KCO1 141907Z 18010KT 23/18 A2998 RMK A01 T02260177  RH  074%=      5-min Rain = 0
KCO1 141908Z 18010KT 23/18 A2998 RMK A01 T02260176  RH  073%=      5-min Rain = 0
KCO1 141909Z 17010KT 23/18 A2998 RMK A01 T02250177  RH  074%=      5-min Rain = 0
KCO1 141910Z 17011KT 23/18 A2998 RMK A01 T02250177  RH  074%=      5-min Rain = 0
KCO1 141911Z 17010KT 23/18 A2998 RMK A01 T02250178  RH  075%=      5-min Rain = 0
KCO1 141912Z 17011KT 23/18 A2998 RMK A01 T02250179  RH  075%=      5-min Rain = 0
KCO1 141913Z 17009KT 22/18 A2998 RMK A01 T02240178  RH  075%=      5-min Rain = 0
KCO1 141914Z 18008KT 22/18 A2998 RMK A01 T02240178  RH  075%=      5-min Rain = 0
KCO1 141915Z 18009KT 23/18 A2997 RMK A01 T02250179  RH  075%=      5-min Rain = 0
KCO1 141916Z 17009KT 23/18 A2997 RMK A01 T02260178  RH  074%=      5-min Rain = 0
KCO1 141917Z 18009KT 23/18 A2997 RMK A01 T02260177  RH  074%=      5-min Rain = 0
KCO1 141918Z 18010KT 23/18 A2997 RMK A01 T02260177  RH  074%=      5-min Rain = 0
KCO1 141919Z 18009KT 23/18 A2997 RMK A01 T02270176  RH  073%=      5-min Rain = 0
KCO1 141920Z 17009KT 23/18 A2997 RMK A01 T02270178  RH  074%=      5-min Rain = 0
KCO1 141921Z 17009KT 23/18 A2997 RMK A01 T02280177  RH  073%=      5-min Rain = 0
KCO1 141922Z 17010KT 23/18 A2997 RMK A01 T02280177  RH  073%=      5-min Rain = 0
KCO1 141923Z 17010KT 23/18 A2997 RMK A01 T02270176  RH  073%=      5-min Rain = 0
KCO1 141924Z 18009KT 23/18 A2997 RMK A01 T02260176  RH  073%=      5-min Rain = 0
KCO1 141925Z 18008KT 23/18 A2997 RMK A01 T02260176  RH  074%=      5-min Rain = 0
KCO1 141926Z 17008KT 23/18 A2997 RMK A01 T02270176  RH  073%=      5-min Rain = 0
KCO1 141927Z 17009KT 23/18 A2997 RMK A01 T02270176  RH  073%=      5-min Rain = 0
KCO1 141928Z 18010KT 23/17 A2997 RMK A01 T02260173  RH  072%=      5-min Rain = 0
KCO1 141929Z 18009KT 23/17 A2997 RMK A01 T02260172  RH  071%=      5-min Rain = 0
KCO1 141930Z 17011KT 23/17 A2997 RMK A01 T02250174  RH  073%=      5-min Rain = 0
KCO1 141931Z 17010KT 23/17 A2997 RMK A01 T02250173  RH  072%=      5-min Rain = 0
KCO1 141932Z 17010KT 23/17 A2997 RMK A01 T02250171  RH  072%=      5-min Rain = 0
KCO1 141933Z 17011KT 23/17 A2997 RMK A01 T02250172  RH  072%=      5-min Rain = 0
KCO1 141934Z 17011KT 23/17 A2997 RMK A01 T02250173  RH  072%=      5-min Rain = 0
KCO1 141935Z 17012KT 22/17 A2997 RMK A01 T02240172  RH  072%=      5-min Rain = 0
KCO1 141936Z 17011KT 23/17 A2997 RMK A01 T02250173  RH  072%=      5-min Rain = 0
KCO1 141937Z 17012KT 22/17 A2997 RMK A01 T02240172  RH  072%=      5-min Rain = 0
KCO1 141938Z 17011KT 22/17 A2997 RMK A01 T02240170  RH  071%=      5-min Rain = 0
KCO1 141939Z 17012KT 22/17 A2997 RMK A01 T02240172  RH  072%=      5-min Rain = 0
KCO1 141940Z 16011KT 22/17 A2997 RMK A01 T02240173  RH  073%=      5-min Rain = 0
KCO1 141941Z 17011KT 22/17 A2997 RMK A01 T02230173  RH  073%=      5-min Rain = 0
KCO1 141942Z 17010KT 22/17 A2996 RMK A01 T02220172  RH  073%=      5-min Rain = 0
KCO1 141943Z 17009KT 22/17 A2996 RMK A01 T02220172  RH  073%=      5-min Rain = 0
KCO1 141944Z 17007KT 22/17 A2996 RMK A01 T02220172  RH  074%=      5-min Rain = 0
KCO1 141945Z 17008KT 22/17 A2996 RMK A01 T02220173  RH  074%=      5-min Rain = 0
KCO1 141946Z 17006KT 22/17 A2996 RMK A01 T02220172  RH  073%=      5-min Rain = 0
KCO1 141947Z 17007KT 22/17 A2996 RMK A01 T02230173  RH  074%=      5-min Rain = 0
KCO1 141948Z 17007KT 22/17 A2996 RMK A01 T02230173  RH  073%=      5-min Rain = 0
KCO1 141949Z 17008KT 22/17 A2996 RMK A01 T02230174  RH  074%=      5-min Rain = 0
KCO1 141950Z 16008KT 22/17 A2997 RMK A01 T02230172  RH  073%=      5-min Rain = 0
KCO1 141951Z 16007KT 22/17 A2997 RMK A01 T02230172  RH  073%=      5-min Rain = 0
KCO1 141952Z 17006KT 22/17 A2997 RMK A01 T02230172  RH  073%=      5-min Rain = 0
KCO1 141953Z 17004KT 22/17 A2997 RMK A01 T02230174  RH  073%=      5-min Rain = 0
KCO1 141954Z 17005KT 22/17 A2997 RMK A01 T02230174  RH  073%=      5-min Rain = 0
KCO1 141955Z 18006KT 22/17 A2997 RMK A01 T02240174  RH  073%=      5-min Rain = 0
KCO1 141956Z 16005KT 22/17 A2997 RMK A01 T02240174  RH  073%=      5-min Rain = 0
KCO1 141957Z 17003KT 22/17 A2997 RMK A01 T02240174  RH  073%=      5-min Rain = 0
KCO1 141958Z 16005KT 23/18 A2997 RMK A01 T02250175  RH  073%=      5-min Rain = 0
KCO1 141959Z 17005KT 23/17 A2997 RMK A01 T02250174  RH  073%=      5-min Rain = 0
KCO1 142000Z 16005KT 23/17 A2997 RMK A01 T02250174  RH  073%=      5-min Rain = 0
KCO1 142001Z 16005KT 23/17 A2997 RMK A01 T02250174  RH  073%=      5-min Rain = 0
KCO1 142002Z 17004KT 23/18 A2997 RMK A01 T02260176  RH  074%=      5-min Rain = 0
KCO1 142003Z 18008KT 23/18 A2997 RMK A01 T02260176  RH  073%=      5-min Rain = 0
KCO1 142004Z 18008KT 23/17 A2997 RMK A01 T02260174  RH  072%=      5-min Rain = 0
KCO1 142005Z 17007KT 23/18 A2997 RMK A01 T02260176  RH  073%=      5-min Rain = 0
KCO1 142006Z 17008KT 23/18 A2997 RMK A01 T02270176  RH  073%=      5-min Rain = 0
KCO1 142007Z 16009KT 23/18 A2997 RMK A01 T02260175  RH  073%=      5-min Rain = 0
KCO1 142008Z 16008KT 23/18 A2997 RMK A01 T02260176  RH  073%=      5-min Rain = 0
KCO1 142009Z 17008KT 23/18 A2997 RMK A01 T02250175  RH  073%=      5-min Rain = 0
KCO1 142010Z 16009KT 23/18 A2997 RMK A01 T02260175  RH  073%=      5-min Rain = 0
KCO1 142011Z 17008KT 23/18 A2997 RMK A01 T02250175  RH  073%=      5-min Rain = 0
KCO1 142012Z 18007KT 23/18 A2997 RMK A01 T02250176  RH  073%=      5-min Rain = 0
KCO1 142013Z 19008KT 23/17 A2997 RMK A01 T02250174  RH  073%=      5-min Rain = 0
KCO1 142014Z 19006KT 23/17 A2997 RMK A01 T02260173  RH  072%=      5-min Rain = 0
KCO1 142015Z 17005KT 23/18 A2997 RMK A01 T02260177  RH  073%=      5-min Rain = 0
KCO1 142016Z 17004KT 23/18 A2997 RMK A01 T02270177  RH  073%=      5-min Rain = 0
KCO1 142017Z 16005KT 23/18 A2997 RMK A01 T02270176  RH  073%=      5-min Rain = 0
KCO1 142018Z 18005KT 23/18 A2997 RMK A01 T02270175  RH  072%=      5-min Rain = 0
KCO1 142019Z 17005KT 23/18 A2997 RMK A01 T02280177  RH  073%=      5-min Rain = 0
KCO1 142020Z 19007KT 23/18 A2996 RMK A01 T02290176  RH  072%=      5-min Rain = 0
KCO1 142021Z 18007KT 23/17 A2996 RMK A01 T02290173  RH  071%=      5-min Rain = 0
KCO1 142022Z 18006KT 23/18 A2996 RMK A01 T02290175  RH  071%=      5-min Rain = 0
KCO1 142023Z 18007KT 23/18 A2996 RMK A01 T02300175  RH  071%=      5-min Rain = 0
KCO1 142024Z 17007KT 23/17 A2996 RMK A01 T02300174  RH  071%=      5-min Rain = 0
KCO1 142025Z 16006KT 23/18 A2996 RMK A01 T02310177  RH  072%=      5-min Rain = 0
KCO1 142026Z 17005KT 23/18 A2996 RMK A01 T02320176  RH  071%=      5-min Rain = 0
KCO1 142027Z 17007KT 23/18 A2996 RMK A01 T02320176  RH  071%=      5-min Rain = 0
KCO1 142028Z 17007KT 23/18 A2996 RMK A01 T02320175  RH  070%=      5-min Rain = 0
KCO1 142029Z 17007KT 23/18 A2996 RMK A01 T02320176  RH  071%=      5-min Rain = 0
KCO1 142030Z 16006KT 23/18 A2996 RMK A01 T02330176  RH  071%=      5-min Rain = 0
KCO1 142031Z 17007KT 23/18 A2996 RMK A01 T02340178  RH  071%=      5-min Rain = 0
KCO1 142032Z 17007KT 24/18 A2996 RMK A01 T02350178  RH  071%=      5-min Rain = 0
KCO1 142033Z 17008KT 24/18 A2996 RMK A01 T02350178  RH  070%=      5-min Rain = 0
KCO1 142034Z 18008KT 24/18 A2996 RMK A01 T02360177  RH  069%=      5-min Rain = 0
KCO1 142035Z 17007KT 24/18 A2996 RMK A01 T02360179  RH  070%=      5-min Rain = 0
KCO1 142036Z 17009KT 24/18 A2996 RMK A01 T02360180  RH  071%=      5-min Rain = 0
KCO1 142037Z 17010KT 24/18 A2996 RMK A01 T02370178  RH  069%=      5-min Rain = 0
KCO1 142038Z 18010KT 24/18 A2996 RMK A01 T02380176  RH  068%=      5-min Rain = 0
KCO1 142039Z 17010KT 24/18 A2996 RMK A01 T02380177  RH  069%=      5-min Rain = 0
KCO1 142040Z 18010KT 24/18 A2995 RMK A01 T02400177  RH  068%=      5-min Rain = 0
KCO1 142041Z 18012KT 24/18 A2995 RMK A01 T02400176  RH  067%=      5-min Rain = 0
KCO1 142042Z 17012KT 24/18 A2995 RMK A01 T02400175  RH  067%=      5-min Rain = 0
KCO1 142043Z 18014KT 24/18 A2995 RMK A01 T02380176  RH  068%=      5-min Rain = 0
KCO1 142044Z 18012KT 24/18 A2995 RMK A01 T02380176  RH  068%=      5-min Rain = 0
KCO1 142045Z 18012KT 24/18 A2995 RMK A01 T02380177  RH  069%=      5-min Rain = 0
KCO1 142046Z 18014KT 24/17 A2995 RMK A01 T02380174  RH  068%=      5-min Rain = 0
KCO1 142047Z 17013KT 24/17 A2995 RMK A01 T02380174  RH  067%=      5-min Rain = 0
KCO1 142048Z 17013KT 24/18 A2995 RMK A01 T02390175  RH  067%=      5-min Rain = 0
KCO1 142049Z 18014KT 24/17 A2995 RMK A01 T02390173  RH  066%=      5-min Rain = 0
KCO1 142050Z 17013KT 24/17 A2995 RMK A01 T02390174  RH  067%=      5-min Rain = 0
KCO1 142051Z 17014KT 24/17 A2995 RMK A01 T02400174  RH  066%=      5-min Rain = 0
KCO1 142052Z 18013KT 24/17 A2995 RMK A01 T02410174  RH  066%=      5-min Rain = 0
KCO1 142053Z 18015KT 24/17 A2995 RMK A01 T02420174  RH  066%=      5-min Rain = 0
KCO1 142054Z 18015KT 24/17 A2995 RMK A01 T02420173  RH  065%=      5-min Rain = 0
KCO1 142055Z 18013KT 24/18 A2995 RMK A01 T02410175  RH  067%=      5-min Rain = 0
KCO1 142056Z 17013KT 24/17 A2995 RMK A01 T02410173  RH  066%=      5-min Rain = 0
KCO1 142057Z 18014KT 24/17 A2995 RMK A01 T02410173  RH  065%=      5-min Rain = 0
KCO1 142058Z 18014KT 24/17 A2995 RMK A01 T02410173  RH  066%=      5-min Rain = 0
KCO1 142059Z 18013KT 24/17 A2995 RMK A01 T02410174  RH  066%=      5-min Rain = 0
KCO1 142100Z 18010KT 24/18 A2995 RMK A01 T02420175  RH  066%=      5-min Rain = 0
KCO1 142101Z 17012KT 24/18 A2995 RMK A01 T02440175  RH  065%=      5-min Rain = 0
KCO1 142102Z 18014KT 24/17 A2995 RMK A01 T02440174  RH  065%=      5-min Rain = 0
KCO1 142103Z 18014KT 24/17 A2995 RMK A01 T02440173  RH  064%=      5-min Rain = 0
KCO1 142104Z 18011KT 24/17 A2995 RMK A01 T02440174  RH  065%=      5-min Rain = 0
KCO1 142105Z 18011KT 25/18 A2995 RMK A01 T02450176  RH  066%=      5-min Rain = 0
KCO1 142106Z 17011KT 25/18 A2995 RMK A01 T02460175  RH  065%=      5-min Rain = 0
KCO1 142107Z 18011KT 25/18 A2995 RMK A01 T02470175  RH  064%=      5-min Rain = 0
KCO1 142108Z 18011KT 25/18 A2995 RMK A01 T02470175  RH  064%=      5-min Rain = 0
KCO1 142109Z 18012KT 25/17 A2995 RMK A01 T02470174  RH  064%=      5-min Rain = 0
KCO1 142110Z 18011KT 25/17 A2995 RMK A01 T02470174  RH  064%=      5-min Rain = 0
KCO1 142111Z 18011KT 25/17 A2995 RMK A01 T02470174  RH  064%=      5-min Rain = 0
KCO1 142112Z 18012KT 25/17 A2995 RMK A01 T02470173  RH  063%=      5-min Rain = 0
KCO1 142113Z 18012KT 25/17 A2995 RMK A01 T02470173  RH  064%=      5-min Rain = 0
KCO1 142114Z 18012KT 25/17 A2995 RMK A01 T02470171  RH  063%=      5-min Rain = 0
KCO1 142115Z 18009KT 25/17 A2995 RMK A01 T02480174  RH  063%=      5-min Rain = 0
KCO1 142116Z 19011KT 25/18 A2995 RMK A01 T02490176  RH  064%=      5-min Rain = 0
KCO1 142117Z 18010KT 25/17 A2995 RMK A01 T02500174  RH  063%=      5-min Rain = 0
KCO1 142118Z 18012KT 25/17 A2995 RMK A01 T02490172  RH  062%=      5-min Rain = 0
KCO1 142119Z 18010KT 25/17 A2995 RMK A01 T02480171  RH  062%=      5-min Rain = 0
KCO1 142120Z 18010KT 25/17 A2995 RMK A01 T02480172  RH  063%=      5-min Rain = 0
KCO1 142121Z 18010KT 25/17 A2995 RMK A01 T02480172  RH  063%=      5-min Rain = 0
KCO1 142122Z 18009KT 25/17 A2995 RMK A01 T02480172  RH  063%=      5-min Rain = 0
KCO1 142123Z 18009KT 25/17 A2995 RMK A01 T02480171  RH  062%=      5-min Rain = 0
KCO1 142124Z 18010KT 25/17 A2994 RMK A01 T02490169  RH  061%=      5-min Rain = 0
KCO1 142125Z 18011KT 25/17 A2994 RMK A01 T02490169  RH  061%=      5-min Rain = 0
KCO1 142126Z 18012KT 25/17 A2994 RMK A01 T02480168  RH  061%=      5-min Rain = 0
KCO1 142127Z 19013KT 25/17 A2994 RMK A01 T02480167  RH  061%=      5-min Rain = 0
KCO1 142128Z 18011KT 25/17 A2994 RMK A01 T02480168  RH  061%=      5-min Rain = 0
KCO1 142129Z 18011KT 25/17 A2994 RMK A01 T02470168  RH  061%=      5-min Rain = 0
KCO1 142130Z 18009KT 25/17 A2994 RMK A01 T02480169  RH  062%=      5-min Rain = 0
KCO1 142131Z 18010KT 25/17 A2994 RMK A01 T02490172  RH  062%=      5-min Rain = 0
KCO1 142132Z 17009KT 25/17 A2994 RMK A01 T02490172  RH  062%=      5-min Rain = 0
KCO1 142133Z 17010KT 25/17 A2994 RMK A01 T02500172  RH  062%=      5-min Rain = 0
KCO1 142134Z 17010KT 25/17 A2994 RMK A01 T02500174  RH  063%=      5-min Rain = 0
KCO1 142135Z 18009KT 25/18 A2994 RMK A01 T02520175  RH  062%=      5-min Rain = 0
KCO1 142136Z 18009KT 25/18 A2994 RMK A01 T02530176  RH  062%=      5-min Rain = 0
KCO1 142137Z 17011KT 26/18 A2994 RMK A01 T02550176  RH  062%=      5-min Rain = 0
KCO1 142138Z 17011KT 25/17 A2994 RMK A01 T02540174  RH  061%=      5-min Rain = 0
KCO1 142139Z 18012KT 25/17 A2994 RMK A01 T02520173  RH  061%=      5-min Rain = 0
KCO1 142140Z 18011KT 25/17 A2994 RMK A01 T02520173  RH  062%=      5-min Rain = 0
KCO1 142141Z 18010KT 25/17 A2994 RMK A01 T02520174  RH  062%=      5-min Rain = 0
KCO1 142142Z 18011KT 25/17 A2994 RMK A01 T02520174  RH  062%=      5-min Rain = 0
KCO1 142143Z 18012KT 25/17 A2994 RMK A01 T02520171  RH  061%=      5-min Rain = 0
KCO1 142144Z 18010KT 25/17 A2994 RMK A01 T02510170  RH  061%=      5-min Rain = 0
KCO1 142145Z 17011KT 25/17 A2994 RMK A01 T02510172  RH  062%=      5-min Rain = 0
KCO1 142146Z 17014KT 25/17 A2994 RMK A01 T02500170  RH  061%=      5-min Rain = 0
KCO1 142147Z 18013KT 25/17 A2994 RMK A01 T02500170  RH  061%=      5-min Rain = 0
KCO1 142148Z 18012KT 25/17 A2994 RMK A01 T02500173  RH  062%=      5-min Rain = 0
KCO1 142149Z 17010KT 25/18 A2994 RMK A01 T02510175  RH  063%=      5-min Rain = 0
KCO1 142150Z 18011KT 25/18 A2994 RMK A01 T02540176  RH  062%=      5-min Rain = 0
KCO1 142151Z 17011KT 26/17 A2994 RMK A01 T02550173  RH  061%=      5-min Rain = 0
KCO1 142152Z 18014KT 26/17 A2994 RMK A01 T02550173  RH  060%=      5-min Rain = 0
KCO1 142153Z 18013KT 25/17 A2994 RMK A01 T02530172  RH  061%=      5-min Rain = 0
KCO1 142154Z 17013KT 25/17 A2994 RMK A01 T02520173  RH  062%=      5-min Rain = 0
KCO1 142155Z 17011KT 25/17 A2994 RMK A01 T02520174  RH  062%=      5-min Rain = 0
KCO1 142156Z 18010KT 25/18 A2994 RMK A01 T02520177  RH  063%=      5-min Rain = 0
KCO1 142157Z 18012KT 25/18 A2994 RMK A01 T02530175  RH  062%=      5-min Rain = 0
KCO1 142158Z 18013KT 25/18 A2994 RMK A01 T02530175  RH  062%=      5-min Rain = 0
KCO1 142159Z 18010KT 25/18 A2994 RMK A01 T02520175  RH  062%=      5-min Rain = 0
KCO1 142200Z 18012KT 25/18 A2994 RMK A01 T02520176  RH  063%=      5-min Rain = 0
KCO1 142201Z 18012KT 25/17 A2994 RMK A01 T02520174  RH  062%=      5-min Rain = 0
KCO1 142202Z 18011KT 25/18 A2994 RMK A01 T02530175  RH  062%=      5-min Rain = 0
KCO1 142203Z 18010KT 25/18 A2994 RMK A01 T02540175  RH  062%=      5-min Rain = 0
KCO1 142204Z 17012KT 26/18 A2994 RMK A01 T02550175  RH  061%=      5-min Rain = 0
KCO1 142205Z 17011KT 26/17 A2994 RMK A01 T02560174  RH  061%=      5-min Rain = 0
KCO1 142206Z 18011KT 26/18 A2994 RMK A01 T02560175  RH  061%=      5-min Rain = 0
KCO1 142207Z 18010KT 26/18 A2994 RMK A01 T02560176  RH  061%=      5-min Rain = 0
KCO1 142208Z 18012KT 26/18 A2994 RMK A01 T02560176  RH  061%=      5-min Rain = 0
KCO1 142209Z 17010KT 26/18 A2994 RMK A01 T02560175  RH  061%=      5-min Rain = 0
KCO1 142210Z 17012KT 26/18 A2994 RMK A01 T02560177  RH  061%=      5-min Rain = 0
KCO1 142211Z 17012KT 26/18 A2994 RMK A01 T02560176  RH  061%=      5-min Rain = 0
KCO1 142212Z 18013KT 26/18 A2994 RMK A01 T02570176  RH  061%=      5-min Rain = 0
KCO1 142213Z 18013KT 26/17 A2994 RMK A01 T02570174  RH  060%=      5-min Rain = 0
KCO1 142214Z 18011KT 26/17 A2994 RMK A01 T02570174  RH  060%=      5-min Rain = 0
KCO1 142215Z 18013KT 26/17 A2994 RMK A01 T02570173  RH  060%=      5-min Rain = 0
KCO1 142216Z 18013KT 26/17 A2994 RMK A01 T02570174  RH  060%=      5-min Rain = 0
KCO1 142217Z 18013KT 26/17 A2994 RMK A01 T02560172  RH  059%=      5-min Rain = 0
KCO1 142218Z 19011KT 26/17 A2994 RMK A01 T02560172  RH  060%=      5-min Rain = 0
KCO1 142219Z 18011KT 26/17 A2994 RMK A01 T02560173  RH  060%=      5-min Rain = 0
KCO1 142220Z 18011KT 26/17 A2994 RMK A01 T02560173  RH  060%=      5-min Rain = 0
KCO1 142221Z 17010KT 26/17 A2994 RMK A01 T02560173  RH  060%=      5-min Rain = 0
KCO1 142222Z 18013KT 26/18 A2994 RMK A01 T02580176  RH  061%=      5-min Rain = 0
KCO1 142223Z 18014KT 26/17 A2994 RMK A01 T02580172  RH  059%=      5-min Rain = 0
KCO1 142224Z 17013KT 26/17 A2994 RMK A01 T02590173  RH  059%=      5-min Rain = 0
KCO1 142225Z 18013KT 26/17 A2994 RMK A01 T02590174  RH  059%=      5-min Rain = 0
KCO1 142226Z 18011KT 26/18 A2994 RMK A01 T02590175  RH  060%=      5-min Rain = 0
KCO1 142227Z 18010KT 26/18 A2994 RMK A01 T02590176  RH  060%=      5-min Rain = 0
KCO1 142228Z 17010KT 26/18 A2994 RMK A01 T02600177  RH  060%=      5-min Rain = 0
KCO1 142229Z 18011KT 26/18 A2994 RMK A01 T02600175  RH  060%=      5-min Rain = 0
KCO1 142230Z 18010KT 26/17 A2994 RMK A01 T02600174  RH  059%=      5-min Rain = 0
KCO1 142231Z 18009KT 26/18 A2994 RMK A01 T02600175  RH  059%=      5-min Rain = 0
KCO1 142232Z 17008G13KT 26/18 A2994 RMK A01 T02620176  RH  059%=      5-min Rain = 0
KCO1 142233Z 17012KT 26/17 A2994 RMK A01 T02620173  RH  058%=      5-min Rain = 0
KCO1 142234Z 17011KT 26/17 A2994 RMK A01 T02590173  RH  059%=      5-min Rain = 0
KCO1 142235Z 17010KT 26/17 A2994 RMK A01 T02580173  RH  060%=      5-min Rain = 0
KCO1 142236Z 17010KT 26/17 A2994 RMK A01 T02570173  RH  060%=      5-min Rain = 0
KCO1 142237Z 17009KT 26/17 A2994 RMK A01 T02570173  RH  060%=      5-min Rain = 0
KCO1 142238Z 17008KT 26/17 A2994 RMK A01 T02570173  RH  060%=      5-min Rain = 0
KCO1 142239Z 17008KT 26/18 A2994 RMK A01 T02570175  RH  060%=      5-min Rain = 0
KCO1 142240Z 18008KT 26/18 A2994 RMK A01 T02580175  RH  060%=      5-min Rain = 0
KCO1 142241Z 17009KT 26/18 A2994 RMK A01 T02580175  RH  060%=      5-min Rain = 0
KCO1 142242Z 18012KT 26/17 A2994 RMK A01 T02580172  RH  059%=      5-min Rain = 0
KCO1 142243Z 18011KT 26/17 A2994 RMK A01 T02570170  RH  059%=      5-min Rain = 0
KCO1 142244Z 18012KT 26/17 A2994 RMK A01 T02560170  RH  059%=      5-min Rain = 0
KCO1 142245Z 18011KT 26/17 A2994 RMK A01 T02560171  RH  059%=      5-min Rain = 0
KCO1 142246Z 17009KT 26/17 A2994 RMK A01 T02560171  RH  060%=      5-min Rain = 0
KCO1 142247Z 17009KT 26/17 A2994 RMK A01 T02560173  RH  060%=      5-min Rain = 0
KCO1 142248Z 17009KT 26/17 A2994 RMK A01 T02550173  RH  060%=      5-min Rain = 0
KCO1 142249Z 17009KT 26/17 A2994 RMK A01 T02560173  RH  060%=      5-min Rain = 0
KCO1 142250Z 17010KT 26/17 A2994 RMK A01 T02560174  RH  060%=      5-min Rain = 0
KCO1 142251Z 17009KT 26/17 A2994 RMK A01 T02560174  RH  061%=      5-min Rain = 0
KCO1 142252Z 17009KT 26/17 A2994 RMK A01 T02560174  RH  061%=      5-min Rain = 0
KCO1 142253Z 17010KT 26/17 A2994 RMK A01 T02560174  RH  061%=      5-min Rain = 0
KCO1 142254Z 18010KT 26/17 A2994 RMK A01 T02560172  RH  060%=      5-min Rain = 0
KCO1 142255Z 17008KT 26/17 A2994 RMK A01 T02570174  RH  060%=      5-min Rain = 0
KCO1 142256Z 18009KT 26/17 A2994 RMK A01 T02580174  RH  060%=      5-min Rain = 0
KCO1 142257Z 18009KT 26/17 A2994 RMK A01 T02590174  RH  059%=      5-min Rain = 0
KCO1 142258Z 18011KT 26/17 A2994 RMK A01 T02590173  RH  059%=      5-min Rain = 0
KCO1 142259Z 18010KT 26/17 A2994 RMK A01 T02600172  RH  059%=      5-min Rain = 0
KCO1 142300Z 18010KT 26/17 A2994 RMK A01 T02590172  RH  059%=      5-min Rain = 0
KCO1 142301Z 18010KT 26/17 A2994 RMK A01 T02580171  RH  059%=      5-min Rain = 0
KCO1 142302Z 18008KT 26/17 A2994 RMK A01 T02570171  RH  059%=      5-min Rain = 0
KCO1 142303Z 18007KT 26/17 A2994 RMK A01 T02570173  RH  060%=      5-min Rain = 0
KCO1 142304Z 17008KT 26/17 A2994 RMK A01 T02560174  RH  061%=      5-min Rain = 0
KCO1 142305Z 17008KT 26/17 A2994 RMK A01 T02560174  RH  060%=      5-min Rain = 0
KCO1 142306Z 17008KT 26/17 A2994 RMK A01 T02550174  RH  061%=      5-min Rain = 0
KCO1 142307Z 17009KT 26/17 A2994 RMK A01 T02550174  RH  061%=      5-min Rain = 0
KCO1 142308Z 17008KT 25/17 A2994 RMK A01 T02540173  RH  061%=      5-min Rain = 0
KCO1 142309Z 17007KT 25/17 A2994 RMK A01 T02540173  RH  061%=      5-min Rain = 0
KCO1 142310Z 17008KT 25/17 A2994 RMK A01 T02530173  RH  061%=      5-min Rain = 0
KCO1 142311Z 17008KT 25/17 A2994 RMK A01 T02530173  RH  061%=      5-min Rain = 0
KCO1 142312Z 18009KT 25/17 A2994 RMK A01 T02530172  RH  061%=      5-min Rain = 0
KCO1 142313Z 17008KT 25/17 A2994 RMK A01 T02530172  RH  061%=      5-min Rain = 0
KCO1 142314Z 17007KT 25/17 A2994 RMK A01 T02520172  RH  061%=      5-min Rain = 0
KCO1 142315Z 17008KT 25/17 A2994 RMK A01 T02520174  RH  062%=      5-min Rain = 0
KCO1 142316Z 17008KT 25/17 A2994 RMK A01 T02520174  RH  062%=      5-min Rain = 0
KCO1 142317Z 18006KT 25/18 A2994 RMK A01 T02520175  RH  062%=      5-min Rain = 0
KCO1 142318Z 17005KT 25/18 A2994 RMK A01 T02510176  RH  063%=      5-min Rain = 0
KCO1 142319Z 17006KT 25/18 A2994 RMK A01 T02510175  RH  063%=      5-min Rain = 0
KCO1 142320Z 17006KT 25/17 A2994 RMK A01 T02510174  RH  062%=      5-min Rain = 0
KCO1 142321Z 17006KT 25/17 A2994 RMK A01 T02510174  RH  063%=      5-min Rain = 0
KCO1 142322Z 17007KT 25/17 A2994 RMK A01 T02500174  RH  063%=      5-min Rain = 0
KCO1 142323Z 17006KT 25/17 A2994 RMK A01 T02500174  RH  063%=      5-min Rain = 0
KCO1 142324Z 17006KT 25/17 A2994 RMK A01 T02500174  RH  063%=      5-min Rain = 0
KCO1 142325Z 17007KT 25/17 A2994 RMK A01 T02500174  RH  063%=      5-min Rain = 0
KCO1 142326Z 18007KT 25/17 A2994 RMK A01 T02490174  RH  063%=      5-min Rain = 0
KCO1 142327Z 18007KT 25/18 A2994 RMK A01 T02490175  RH  064%=      5-min Rain = 0
KCO1 142328Z 18007KT 25/18 A2994 RMK A01 T02490175  RH  064%=      5-min Rain = 0
KCO1 142329Z 18007KT 25/18 A2994 RMK A01 T02480176  RH  064%=      5-min Rain = 0
KCO1 142330Z 18007KT 25/18 A2994 RMK A01 T02480176  RH  064%=      5-min Rain = 0
KCO1 142331Z 17006KT 25/18 A2994 RMK A01 T02480177  RH  064%=      5-min Rain = 0
KCO1 142332Z 17006KT 25/18 A2994 RMK A01 T02480177  RH  065%=      5-min Rain = 0
KCO1 142333Z 18007KT 25/18 A2994 RMK A01 T02470177  RH  065%=      5-min Rain = 0
KCO1 142334Z 18007KT 25/18 A2994 RMK A01 T02470178  RH  065%=      5-min Rain = 0
KCO1 142335Z 17006KT 25/18 A2994 RMK A01 T02470178  RH  066%=      5-min Rain = 0
KCO1 142336Z 17006KT 25/18 A2994 RMK A01 T02460178  RH  066%=      5-min Rain = 0
KCO1 142337Z 17007KT 25/18 A2994 RMK A01 T02460178  RH  066%=      5-min Rain = 0
KCO1 142338Z 18007KT 25/18 A2994 RMK A01 T02450178  RH  066%=      5-min Rain = 0
KCO1 142339Z 18006KT 25/18 A2994 RMK A01 T02450179  RH  066%=      5-min Rain = 0
KCO1 142340Z 18006KT 25/18 A2994 RMK A01 T02450179  RH  067%=      5-min Rain = 0
KCO1 142341Z 18006KT 24/18 A2994 RMK A01 T02440180  RH  067%=      5-min Rain = 0
KCO1 142342Z 18006KT 24/18 A2994 RMK A01 T02440180  RH  067%=      5-min Rain = 0
KCO1 142343Z 18007KT 24/18 A2994 RMK A01 T02430180  RH  068%=      5-min Rain = 0
KCO1 142344Z 18007KT 24/18 A2994 RMK A01 T02430180  RH  068%=      5-min Rain = 0
KCO1 142345Z 18007KT 24/18 A2994 RMK A01 T02430180  RH  068%=      5-min Rain = 0
KCO1 142346Z 18007KT 24/18 A2994 RMK A01 T02430181  RH  068%=      5-min Rain = 0
KCO1 142347Z 18007KT 24/18 A2994 RMK A01 T02430180  RH  068%=      5-min Rain = 0
KCO1 142348Z 17007KT 24/18 A2994 RMK A01 T02430180  RH  068%=      5-min Rain = 0
KCO1 142349Z 17007KT 24/18 A2994 RMK A01 T02430180  RH  068%=      5-min Rain = 0
KCO1 142350Z 17007KT 24/18 A2994 RMK A01 T02420180  RH  068%=      5-min Rain = 0
KCO1 142351Z 17007KT 24/18 A2994 RMK A01 T02420180  RH  068%=      5-min Rain = 0
KCO1 142352Z 17007KT 24/18 A2994 RMK A01 T02410180  RH  069%=      5-min Rain = 0
KCO1 142353Z 17007KT 24/18 A2994 RMK A01 T02410179  RH  068%=      5-min Rain = 0
KCO1 142354Z 17006KT 24/18 A2994 RMK A01 T02410178  RH  068%=      5-min Rain = 0
KCO1 142355Z 16007KT 24/18 A2994 RMK A01 T02410178  RH  068%=      5-min Rain = 0
KCO1 142356Z 17007KT 24/18 A2994 RMK A01 T02410179  RH  068%=      5-min Rain = 0
KCO1 142357Z 16007KT 24/18 A2994 RMK A01 T02400179  RH  069%=      5-min Rain = 0
KCO1 142358Z 16008KT 24/18 A2994 RMK A01 T02400180  RH  069%=      5-min Rain = 0
KCO1 142359Z 17009KT 24/18 A2994 RMK A01 T02400179  RH  069%=      5-min Rain = 0
KCO1 150000Z 17008KT 24/18 A2994 RMK A01 T02400179  RH  069%=      5-min Rain = 0
KCO1 150001Z 17007KT 24/18 A2994 RMK A01 T02400179  RH  069%=      5-min Rain = 0
KCO1 150002Z 17007KT 24/18 A2994 RMK A01 T02390179  RH  069%=      5-min Rain = 0
KCO1 150003Z 17008KT 24/18 A2994 RMK A01 T02390179  RH  069%=      5-min Rain = 0
KCO1 150004Z 17008KT 24/18 A2994 RMK A01 T02380178  RH  069%=      5-min Rain = 0
KCO1 150005Z 17008KT 24/18 A2994 RMK A01 T02380178  RH  069%=      5-min Rain = 0
KCO1 150006Z 17007KT 24/18 A2994 RMK A01 T02370178  RH  069%=      5-min Rain = 0
KCO1 150007Z 17008KT 24/18 A2994 RMK A01 T02370178  RH  069%=      5-min Rain = 0
KCO1 150008Z 17008KT 24/18 A2994 RMK A01 T02370178  RH  070%=      5-min Rain = 0
KCO1 150009Z 17008KT 24/18 A2994 RMK A01 T02360178  RH  070%=      5-min Rain = 0
KCO1 150010Z 17008KT 24/18 A2994 RMK A01 T02360178  RH  070%=      5-min Rain = 0
KCO1 150011Z 17008KT 24/18 A2994 RMK A01 T02360178  RH  070%=      5-min Rain = 0
KCO1 150012Z 17009KT 24/18 A2994 RMK A01 T02360178  RH  070%=      5-min Rain = 0
KCO1 150013Z 17008KT 24/18 A2994 RMK A01 T02350177  RH  070%=      5-min Rain = 0
KCO1 150014Z 17008KT 24/18 A2994 RMK A01 T02360177  RH  070%=      5-min Rain = 0
KCO1 150015Z 17009KT 24/18 A2994 RMK A01 T02360177  RH  070%=      5-min Rain = 0
KCO1 150016Z 16010KT 24/18 A2994 RMK A01 T02350176  RH  069%=      5-min Rain = 0
KCO1 150017Z 16009KT 24/18 A2994 RMK A01 T02360176  RH  069%=      5-min Rain = 0
KCO1 150018Z 16010KT 24/18 A2994 RMK A01 T02360176  RH  069%=      5-min Rain = 0
KCO1 150019Z 17009KT 24/18 A2994 RMK A01 T02360176  RH  069%=      5-min Rain = 0
KCO1 150020Z 17009KT 24/18 A2994 RMK A01 T02360177  RH  069%=      5-min Rain = 0
KCO1 150021Z 17008KT 24/18 A2994 RMK A01 T02350177  RH  070%=      5-min Rain = 0
KCO1 150022Z 16008KT 24/18 A2994 RMK A01 T02350176  RH  070%=      5-min Rain = 0
KCO1 150023Z 17008KT 24/18 A2994 RMK A01 T02350176  RH  069%=      5-min Rain = 0
KCO1 150024Z 16007KT 24/18 A2994 RMK A01 T02350176  RH  069%=      5-min Rain = 0
KCO1 150025Z 16007KT 24/18 A2994 RMK A01 T02350176  RH  069%=      5-min Rain = 0
KCO1 150026Z 16006KT 24/18 A2994 RMK A01 T02350176  RH  069%=      5-min Rain = 0
KCO1 150027Z 16005KT 24/18 A2994 RMK A01 T02350176  RH  069%=      5-min Rain = 0
KCO1 150028Z 15005KT 24/18 A2994 RMK A01 T02350177  RH  070%=      5-min Rain = 0
KCO1 150029Z 15006KT 23/18 A2994 RMK A01 T02340177  RH  070%=      5-min Rain = 0
KCO1 150030Z 15006KT 23/18 A2994 RMK A01 T02340177  RH  071%=      5-min Rain = 0
KCO1 150031Z 15006KT 23/18 A2994 RMK A01 T02330177  RH  071%=      5-min Rain = 0
KCO1 150032Z 15008KT 23/18 A2994 RMK A01 T02330178  RH  071%=      5-min Rain = 0
KCO1 150033Z 15007KT 23/18 A2994 RMK A01 T02330177  RH  071%=      5-min Rain = 0
KCO1 150034Z 14007KT 23/18 A2994 RMK A01 T02330178  RH  071%=      5-min Rain = 0
KCO1 150035Z 15006KT 23/18 A2994 RMK A01 T02320178  RH  071%=      5-min Rain = 0
KCO1 150036Z 14006KT 23/18 A2994 RMK A01 T02310178  RH  072%=      5-min Rain = 0
KCO1 150037Z 14006KT 23/18 A2994 RMK A01 T02300178  RH  072%=      5-min Rain = 0
KCO1 150038Z 14006KT 23/18 A2994 RMK A01 T02300178  RH  073%=      5-min Rain = 0
KCO1 150039Z 14007KT 23/18 A2994 RMK A01 T02290179  RH  073%=      5-min Rain = 0
KCO1 150040Z 15007KT 23/18 A2994 RMK A01 T02290179  RH  074%=      5-min Rain = 0
KCO1 150041Z 15008KT 23/18 A2994 RMK A01 T02280179  RH  074%=      5-min Rain = 0
KCO1 150042Z 14008KT 23/18 A2994 RMK A01 T02280180  RH  074%=      5-min Rain = 0
KCO1 150043Z 14007KT 23/18 A2994 RMK A01 T02280180  RH  074%=      5-min Rain = 0
KCO1 150044Z 15007KT 23/18 A2994 RMK A01 T02270181  RH  075%=      5-min Rain = 0
KCO1 150045Z 14007KT 23/18 A2994 RMK A01 T02270181  RH  075%=      5-min Rain = 0
KCO1 150046Z 14007KT 23/18 A2994 RMK A01 T02270181  RH  075%=      5-min Rain = 0
KCO1 150047Z 15008KT 23/18 A2994 RMK A01 T02260181  RH  076%=      5-min Rain = 0
KCO1 150048Z 14008KT 23/18 A2994 RMK A01 T02260181  RH  076%=      5-min Rain = 0
KCO1 150049Z 14008KT 23/18 A2994 RMK A01 T02250181  RH  076%=      5-min Rain = 0
KCO1 150050Z 15007KT 23/18 A2994 RMK A01 T02250182  RH  076%=      5-min Rain = 0
KCO1 150051Z 14007KT 23/18 A2994 RMK A01 T02250182  RH  076%=      5-min Rain = 0
KCO1 150052Z 14007KT 23/18 A2994 RMK A01 T02250182  RH  076%=      5-min Rain = 0
KCO1 150053Z 15007KT 23/18 A2994 RMK A01 T02250182  RH  076%=      5-min Rain = 0
KCO1 150054Z 14007KT 23/18 A2994 RMK A01 T02250182  RH  077%=      5-min Rain = 0
KCO1 150055Z 14007KT 22/18 A2994 RMK A01 T02240182  RH  077%=      5-min Rain = 0
KCO1 150056Z 14007KT 22/18 A2994 RMK A01 T02240182  RH  077%=      5-min Rain = 0
KCO1 150057Z 14007KT 22/18 A2994 RMK A01 T02240182  RH  077%=      5-min Rain = 0
KCO1 150058Z 14007KT 22/18 A2994 RMK A01 T02240181  RH  077%=      5-min Rain = 0
KCO1 150059Z 14007KT 22/18 A2994 RMK A01 T02240182  RH  077%=      5-min Rain = 0
KCO1 150100Z 14007KT 22/18 A2994 RMK A01 T02230182  RH  077%=      5-min Rain = 0
KCO1 150101Z 14006KT 22/18 A2994 RMK A01 T02230182  RH  077%=      5-min Rain = 0
KCO1 150102Z 14007KT 22/18 A2994 RMK A01 T02230182  RH  077%=      5-min Rain = 0
KCO1 150103Z 14006KT 22/18 A2994 RMK A01 T02230181  RH  077%=      5-min Rain = 0
KCO1 150104Z 14007KT 22/18 A2994 RMK A01 T02220181  RH  078%=      5-min Rain = 0
KCO1 150105Z 14006KT 22/18 A2994 RMK A01 T02220181  RH  078%=      5-min Rain = 0
KCO1 150106Z 14006KT 22/18 A2994 RMK A01 T02220181  RH  078%=      5-min Rain = 0
KCO1 150107Z 14007KT 22/18 A2994 RMK A01 T02220181  RH  078%=      5-min Rain = 0
KCO1 150108Z 14007KT 22/18 A2994 RMK A01 T02220181  RH  077%=      5-min Rain = 0
KCO1 150109Z 14006KT 22/18 A2994 RMK A01 T02220180  RH  077%=      5-min Rain = 0
KCO1 150110Z 14006KT 22/18 A2994 RMK A01 T02220180  RH  077%=      5-min Rain = 0
KCO1 150111Z 14006KT 22/18 A2994 RMK A01 T02220180  RH  077%=      5-min Rain = 0
KCO1 150112Z 15007KT 22/18 A2994 RMK A01 T02220180  RH  077%=      5-min Rain = 0
KCO1 150113Z 14007KT 22/18 A2994 RMK A01 T02220180  RH  077%=      5-min Rain = 0
KCO1 150114Z 14006KT 22/18 A2994 RMK A01 T02220180  RH  077%=      5-min Rain = 0
KCO1 150115Z 14007KT 22/18 A2994 RMK A01 T02210179  RH  077%=      5-min Rain = 0
KCO1 150116Z 14007KT 22/18 A2994 RMK A01 T02210179  RH  077%=      5-min Rain = 0
KCO1 150117Z 14007KT 22/18 A2994 RMK A01 T02210179  RH  077%=      5-min Rain = 0
KCO1 150118Z 14007KT 22/18 A2994 RMK A01 T02210179  RH  077%=      5-min Rain = 0
KCO1 150119Z 14007KT 22/18 A2994 RMK A01 T02210179  RH  077%=      5-min Rain = 0
KCO1 150120Z 14007KT 22/18 A2994 RMK A01 T02210179  RH  077%=      5-min Rain = 0
KCO1 150121Z 14007KT 22/18 A2994 RMK A01 T02210179  RH  077%=      5-min Rain = 0
KCO1 150122Z 14007KT 22/18 A2994 RMK A01 T02200179  RH  077%=      5-min Rain = 0
KCO1 150123Z 15007KT 22/18 A2994 RMK A01 T02200179  RH  077%=      5-min Rain = 0
KCO1 150124Z 14007KT 22/18 A2994 RMK A01 T02200179  RH  077%=      5-min Rain = 0
KCO1 150125Z 14007KT 22/18 A2994 RMK A01 T02200178  RH  077%=      5-min Rain = 0
KCO1 150126Z 14007KT 22/18 A2994 RMK A01 T02200178  RH  077%=      5-min Rain = 0
KCO1 150127Z 14008KT 22/18 A2994 RMK A01 T02210178  RH  077%=      5-min Rain = 0
KCO1 150128Z 14008KT 22/18 A2994 RMK A01 T02210177  RH  076%=      5-min Rain = 0
KCO1 150129Z 14008KT 22/18 A2994 RMK A01 T02210177  RH  076%=      5-min Rain = 0
KCO1 150130Z 14007KT 22/18 A2994 RMK A01 T02210176  RH  076%=      5-min Rain = 0
KCO1 150131Z 14007KT 22/18 A2995 RMK A01 T02210177  RH  076%=      5-min Rain = 0
KCO1 150132Z 14007KT 22/18 A2995 RMK A01 T02210177  RH  076%=      5-min Rain = 0
KCO1 150133Z 14007KT 22/18 A2995 RMK A01 T02210177  RH  076%=      5-min Rain = 0
KCO1 150134Z 14007KT 22/18 A2995 RMK A01 T02210177  RH  076%=      5-min Rain = 0
KCO1 150135Z 14007KT 22/18 A2995 RMK A01 T02210177  RH  076%=      5-min Rain = 0
KCO1 150136Z 14006KT 22/18 A2995 RMK A01 T02210177  RH  076%=      5-min Rain = 0
KCO1 150137Z 14006KT 22/18 A2995 RMK A01 T02210177  RH  076%=      5-min Rain = 0
KCO1 150138Z 14006KT 22/18 A2995 RMK A01 T02210177  RH  076%=      5-min Rain = 0
KCO1 150139Z 14006KT 22/18 A2995 RMK A01 T02210177  RH  076%=      5-min Rain = 0
KCO1 150140Z 14006KT 22/18 A2995 RMK A01 T02200177  RH  076%=      5-min Rain = 0
KCO1 150141Z 14006KT 22/18 A2995 RMK A01 T02200177  RH  077%=      5-min Rain = 0
KCO1 150142Z 14005KT 22/18 A2995 RMK A01 T02190177  RH  077%=      5-min Rain = 0
KCO1 150143Z 14006KT 22/18 A2995 RMK A01 T02190177  RH  077%=      5-min Rain = 0
KCO1 150144Z 14006KT 22/18 A2995 RMK A01 T02190177  RH  077%=      5-min Rain = 0
KCO1 150145Z 14007KT 22/18 A2995 RMK A01 T02190177  RH  077%=      5-min Rain = 0
KCO1 150146Z 14007KT 22/18 A2995 RMK A01 T02180177  RH  077%=      5-min Rain = 0
KCO1 150147Z 14007KT 22/18 A2995 RMK A01 T02190177  RH  077%=      5-min Rain = 0
KCO1 150148Z 14007KT 22/18 A2995 RMK A01 T02190177  RH  077%=      5-min Rain = 0
KCO1 150149Z 14007KT 22/18 A2995 RMK A01 T02190177  RH  077%=      5-min Rain = 0
KCO1 150150Z 14007KT 22/18 A2995 RMK A01 T02180177  RH  077%=      5-min Rain = 0
KCO1 150151Z 14007KT 22/18 A2995 RMK A01 T02180177  RH  078%=      5-min Rain = 0
KCO1 150152Z 14008KT 22/18 A2995 RMK A01 T02180177  RH  078%=      5-min Rain = 0
KCO1 150153Z 14007KT 22/18 A2995 RMK A01 T02180177  RH  077%=      5-min Rain = 0
KCO1 150154Z 14006KT 22/18 A2995 RMK A01 T02180177  RH  077%=      5-min Rain = 0
KCO1 150155Z 14007KT 22/18 A2995 RMK A01 T02180177  RH  077%=      5-min Rain = 0
KCO1 150156Z 14007KT 22/18 A2995 RMK A01 T02180177  RH  078%=      5-min Rain = 0
KCO1 150157Z 14008KT 22/18 A2995 RMK A01 T02180177  RH  078%=      5-min Rain = 0
KCO1 150158Z 14008KT 22/18 A2995 RMK A01 T02180177  RH  078%=      5-min Rain = 0
KCO1 150159Z 14008KT 22/18 A2995 RMK A01 T02180177  RH  078%=      5-min Rain = 0
KCO1 150200Z 14007KT 22/18 A2995 RMK A01 T02180177  RH  078%=      5-min Rain = 0
KCO1 150201Z 14007KT 22/18 A2995 RMK A01 T02180177  RH  078%=      5-min Rain = 0
KCO1 150202Z 14007KT 22/18 A2995 RMK A01 T02180177  RH  078%=      5-min Rain = 0
KCO1 150203Z 14007KT 22/18 A2995 RMK A01 T02180178  RH  078%=      5-min Rain = 0
KCO1 150204Z 14007KT 22/18 A2995 RMK A01 T02180178  RH  078%=      5-min Rain = 0
KCO1 150205Z 14008KT 22/18 A2995 RMK A01 T02180178  RH  078%=      5-min Rain = 0
KCO1 150206Z 14007KT 22/18 A2995 RMK A01 T02180178  RH  078%=      5-min Rain = 0
KCO1 150207Z 14007KT 22/18 A2995 RMK A01 T02180178  RH  078%=      5-min Rain = 0
KCO1 150208Z 14007KT 22/18 A2995 RMK A01 T02180178  RH  078%=      5-min Rain = 0
KCO1 150209Z 14007KT 22/18 A2995 RMK A01 T02180178  RH  078%=      5-min Rain = 0
KCO1 150210Z 14007KT 22/18 A2995 RMK A01 T02180178  RH  078%=      5-min Rain = 0
KCO1 150211Z 14007KT 22/18 A2995 RMK A01 T02180178  RH  078%=      5-min Rain = 0
KCO1 150212Z 14007KT 22/18 A2995 RMK A01 T02180179  RH  078%=      5-min Rain = 0
KCO1 150213Z 14007KT 22/18 A2995 RMK A01 T02180178  RH  078%=      5-min Rain = 0
KCO1 150214Z 15006KT 22/18 A2995 RMK A01 T02180179  RH  078%=      5-min Rain = 0
KCO1 150215Z 14007KT 22/18 A2995 RMK A01 T02180178  RH  078%=      5-min Rain = 0
KCO1 150216Z 15005KT 22/18 A2995 RMK A01 T02170178  RH  078%=      5-min Rain = 0
KCO1 150217Z 15005KT 22/18 A2995 RMK A01 T02180178  RH  078%=      5-min Rain = 0
KCO1 150218Z 16005KT 22/18 A2995 RMK A01 T02180179  RH  078%=      5-min Rain = 0
KCO1 150219Z 15005KT 22/18 A2995 RMK A01 T02180179  RH  079%=      5-min Rain = 0
KCO1 150220Z 15005KT 22/18 A2995 RMK A01 T02180179  RH  079%=      5-min Rain = 0
KCO1 150221Z 15005KT 22/18 A2995 RMK A01 T02180179  RH  079%=      5-min Rain = 0
KCO1 150222Z 15005KT 22/18 A2995 RMK A01 T02180179  RH  079%=      5-min Rain = 0
KCO1 150223Z 15005KT 22/18 A2995 RMK A01 T02180179  RH  079%=      5-min Rain = 0
KCO1 150224Z 15006KT 22/18 A2995 RMK A01 T02180179  RH  079%=      5-min Rain = 0
KCO1 150225Z 16006KT 22/18 A2995 RMK A01 T02180179  RH  079%=      5-min Rain = 0
KCO1 150226Z 16005KT 22/18 A2995 RMK A01 T02180179  RH  078%=      5-min Rain = 0
KCO1 150227Z 16007KT 22/18 A2995 RMK A01 T02190179  RH  078%=      5-min Rain = 0
KCO1 150228Z 16008KT 22/18 A2995 RMK A01 T02210178  RH  077%=      5-min Rain = 0
KCO1 150229Z 16008KT 22/18 A2995 RMK A01 T02230178  RH  076%=      5-min Rain = 0
KCO1 150230Z 16008KT 22/18 A2995 RMK A01 T02240178  RH  075%=      5-min Rain = 0
KCO1 150231Z 17008KT 23/18 A2995 RMK A01 T02250178  RH  075%=      5-min Rain = 0
KCO1 150232Z 17008KT 23/18 A2995 RMK A01 T02250179  RH  075%=      5-min Rain = 0
KCO1 150233Z 17007KT 22/18 A2996 RMK A01 T02240178  RH  075%=      5-min Rain = 0
KCO1 150234Z 17008KT 22/18 A2996 RMK A01 T02230178  RH  076%=      5-min Rain = 0
KCO1 150235Z 17007KT 22/18 A2996 RMK A01 T02230178  RH  076%=      5-min Rain = 0
KCO1 150236Z 17008KT 22/18 A2996 RMK A01 T02230178  RH  076%=      5-min Rain = 0
KCO1 150237Z 17008KT 22/18 A2996 RMK A01 T02230178  RH  076%=      5-min Rain = 0
KCO1 150238Z 17008KT 22/18 A2996 RMK A01 T02230178  RH  075%=      5-min Rain = 0
KCO1 150239Z 17008KT 22/18 A2996 RMK A01 T02230177  RH  075%=      5-min Rain = 0
KCO1 150240Z 17008KT 22/18 A2996 RMK A01 T02240177  RH  075%=      5-min Rain = 0
KCO1 150241Z 17008KT 22/18 A2996 RMK A01 T02240177  RH  075%=      5-min Rain = 0
KCO1 150242Z 17007KT 23/18 A2996 RMK A01 T02250177  RH  075%=      5-min Rain = 0
KCO1 150243Z 17007KT 22/18 A2996 RMK A01 T02240177  RH  074%=      5-min Rain = 0
KCO1 150244Z 16007KT 23/18 A2996 RMK A01 T02250177  RH  074%=      5-min Rain = 0
KCO1 150245Z 17007KT 23/18 A2996 RMK A01 T02250178  RH  075%=      5-min Rain = 0
KCO1 150246Z 17007KT 22/18 A2996 RMK A01 T02240178  RH  075%=      5-min Rain = 0
KCO1 150247Z 17007KT 22/18 A2996 RMK A01 T02230178  RH  075%=      5-min Rain = 0
KCO1 150248Z 17007KT 22/18 A2996 RMK A01 T02230178  RH  076%=      5-min Rain = 0
KCO1 150249Z 17007KT 22/18 A2996 RMK A01 T02220178  RH  076%=      5-min Rain = 0
KCO1 150250Z 17008KT 22/18 A2996 RMK A01 T02220177  RH  076%=      5-min Rain = 0
KCO1 150251Z 17008KT 22/18 A2996 RMK A01 T02220178  RH  076%=      5-min Rain = 0
KCO1 150252Z 17008KT 22/18 A2996 RMK A01 T02220177  RH  076%=      5-min Rain = 0
KCO1 150253Z 17008KT 22/18 A2996 RMK A01 T02220177  RH  076%=      5-min Rain = 0
KCO1 150254Z 17008KT 22/18 A2996 RMK A01 T02220177  RH  075%=      5-min Rain = 0
KCO1 150255Z 17008KT 22/18 A2996 RMK A01 T02220176  RH  075%=      5-min Rain = 0
KCO1 150256Z 17007KT 22/18 A2996 RMK A01 T02220176  RH  075%=      5-min Rain = 0
KCO1 150257Z 17007KT 22/18 A2996 RMK A01 T02220177  RH  075%=      5-min Rain = 0
KCO1 150258Z 17008KT 22/18 A2996 RMK A01 T02220176  RH  075%=      5-min Rain = 0
KCO1 150259Z 17008KT 22/18 A2996 RMK A01 T02230176  RH  075%=      5-min Rain = 0
KCO1 150300Z 17008KT 22/18 A2996 RMK A01 T02230176  RH  075%=      5-min Rain = 0
KCO1 150301Z 17007KT 22/18 A2996 RMK A01 T02230176  RH  075%=      5-min Rain = 0
KCO1 150302Z 18007KT 22/18 A2996 RMK A01 T02230176  RH  075%=      5-min Rain = 0
KCO1 150303Z 18007KT 22/18 A2996 RMK A01 T02230177  RH  075%=      5-min Rain = 0
KCO1 150304Z 18007KT 22/18 A2996 RMK A01 T02220177  RH  075%=      5-min Rain = 0
KCO1 150305Z 17006KT 22/18 A2996 RMK A01 T02220177  RH  076%=      5-min Rain = 0
KCO1 150306Z 18006KT 22/18 A2996 RMK A01 T02220177  RH  076%=      5-min Rain = 0
KCO1 150307Z 18006KT 22/18 A2996 RMK A01 T02220177  RH  076%=      5-min Rain = 0
KCO1 150308Z 18006KT 22/18 A2996 RMK A01 T02210177  RH  076%=      5-min Rain = 0
KCO1 150309Z 18006KT 22/18 A2996 RMK A01 T02210178  RH  076%=      5-min Rain = 0
KCO1 150310Z 17006KT 22/18 A2997 RMK A01 T02210177  RH  076%=      5-min Rain = 0
KCO1 150311Z 18006KT 22/18 A2997 RMK A01 T02210177  RH  076%=      5-min Rain = 0
KCO1 150312Z 17006KT 22/18 A2997 RMK A01 T02210177  RH  076%=      5-min Rain = 0
KCO1 150313Z 17006KT 22/18 A2997 RMK A01 T02210177  RH  076%=      5-min Rain = 0
KCO1 150314Z 17006KT 22/18 A2997 RMK A01 T02200177  RH  077%=      5-min Rain = 0
KCO1 150315Z 17007KT 22/18 A2997 RMK A01 T02200177  RH  077%=      5-min Rain = 0
KCO1 150316Z 17007KT 22/18 A2997 RMK A01 T02200178  RH  077%=      5-min Rain = 0
KCO1 150317Z 17006KT 22/18 A2997 RMK A01 T02190177  RH  077%=      5-min Rain = 0
KCO1 150318Z 17007KT 22/18 A2997 RMK A01 T02190177  RH  077%=      5-min Rain = 0
KCO1 150319Z 17007KT 22/18 A2997 RMK A01 T02190177  RH  077%=      5-min Rain = 0
KCO1 150320Z 17006KT 22/18 A2997 RMK A01 T02190177  RH  077%=      5-min Rain = 0
KCO1 150321Z 17006KT 22/18 A2997 RMK A01 T02180177  RH  077%=      5-min Rain = 0
KCO1 150322Z 17006KT 22/18 A2997 RMK A01 T02180177  RH  077%=      5-min Rain = 0
KCO1 150323Z 17006KT 22/18 A2997 RMK A01 T02180177  RH  078%=      5-min Rain = 0
KCO1 150324Z 17006KT 22/18 A2997 RMK A01 T02180177  RH  078%=      5-min Rain = 0
KCO1 150325Z 18007KT 22/18 A2997 RMK A01 T02170177  RH  078%=      5-min Rain = 0
KCO1 150326Z 17006KT 22/18 A2997 RMK A01 T02180178  RH  078%=      5-min Rain = 0
KCO1 150327Z 17006KT 22/18 A2997 RMK A01 T02170178  RH  078%=      5-min Rain = 0
KCO1 150328Z 17006KT 22/18 A2997 RMK A01 T02170178  RH  078%=      5-min Rain = 0
KCO1 150329Z 17006KT 22/18 A2997 RMK A01 T02170178  RH  079%=      5-min Rain = 0
KCO1 150330Z 17006KT 22/18 A2997 RMK A01 T02160178  RH  079%=      5-min Rain = 0
KCO1 150331Z 18005KT 22/18 A2997 RMK A01 T02160178  RH  079%=      5-min Rain = 0
KCO1 150332Z 18005KT 22/18 A2997 RMK A01 T02150178  RH  079%=      5-min Rain = 0
KCO1 150333Z 18005KT 21/18 A2997 RMK A01 T02140178  RH  080%=      5-min Rain = 0
KCO1 150334Z 18004KT 21/18 A2997 RMK A01 T02140177  RH  080%=      5-min Rain = 0
KCO1 150335Z 18005KT 21/18 A2997 RMK A01 T02130177  RH  080%=      5-min Rain = 0
KCO1 150336Z 17005KT 21/18 A2997 RMK A01 T02130177  RH  080%=      5-min Rain = 0
KCO1 150337Z 17006KT 21/18 A2997 RMK A01 T02130177  RH  080%=      5-min Rain = 0
KCO1 150338Z 17006KT 21/18 A2997 RMK A01 T02120177  RH  080%=      5-min Rain = 0
KCO1 150339Z 18006KT 21/18 A2997 RMK A01 T02120177  RH  080%=      5-min Rain = 0
KCO1 150340Z 18006KT 21/18 A2997 RMK A01 T02120177  RH  080%=      5-min Rain = 0
KCO1 150341Z 18006KT 21/18 A2997 RMK A01 T02120177  RH  080%=      5-min Rain = 0
KCO1 150342Z 18006KT 21/18 A2997 RMK A01 T02120177  RH  080%=      5-min Rain = 0
KCO1 150343Z 18006KT 21/18 A2997 RMK A01 T02130177  RH  080%=      5-min Rain = 0
KCO1 150344Z 19006KT 21/18 A2997 RMK A01 T02130177  RH  080%=      5-min Rain = 0
KCO1 150345Z 19006KT 21/18 A2997 RMK A01 T02130177  RH  080%=      5-min Rain = 0
KCO1 150346Z 18006KT 21/18 A2997 RMK A01 T02130177  RH  080%=      5-min Rain = 0
KCO1 150347Z 18006KT 21/18 A2997 RMK A01 T02120177  RH  080%=      5-min Rain = 0
KCO1 150348Z 18006KT 21/18 A2997 RMK A01 T02130177  RH  080%=      5-min Rain = 0
KCO1 150349Z 18006KT 21/18 A2997 RMK A01 T02130177  RH  080%=      5-min Rain = 0
KCO1 150350Z 18006KT 21/18 A2997 RMK A01 T02120177  RH  080%=      5-min Rain = 0
KCO1 150351Z 17006KT 21/18 A2997 RMK A01 T02120177  RH  081%=      5-min Rain = 0
KCO1 150352Z 17006KT 21/18 A2997 RMK A01 T02120177  RH  081%=      5-min Rain = 0
KCO1 150353Z 18006KT 21/18 A2997 RMK A01 T02110177  RH  081%=      5-min Rain = 0
KCO1 150354Z 17006KT 21/18 A2997 RMK A01 T02110177  RH  081%=      5-min Rain = 0
KCO1 150355Z 17006KT 21/18 A2997 RMK A01 T02120178  RH  081%=      5-min Rain = 0
KCO1 150356Z 17006KT 21/18 A2997 RMK A01 T02110177  RH  081%=      5-min Rain = 0
KCO1 150357Z 17006KT 21/18 A2997 RMK A01 T02110177  RH  081%=      5-min Rain = 0
KCO1 150358Z 17005KT 21/18 A2997 RMK A01 T02110177  RH  081%=      5-min Rain = 0
KCO1 150359Z 16004KT 21/18 A2997 RMK A01 T02100177  RH  081%=      5-min Rain = 0
KCO1 150400Z 14003KT 21/18 A2998 RMK A01 T02100177  RH  081%=      5-min Rain = 0
KCO1 150401Z 15004KT 21/18 A2998 RMK A01 T02100177  RH  081%=      5-min Rain = 0
KCO1 150402Z 15003KT 21/18 A2998 RMK A01 T02100177  RH  081%=      5-min Rain = 0
KCO1 150403Z 16003KT 21/18 A2997 RMK A01 T02100177  RH  082%=      5-min Rain = 0
KCO1 150404Z 16003KT 21/18 A2997 RMK A01 T02090177  RH  082%=      5-min Rain = 0
KCO1 150405Z 17004KT 21/18 A2997 RMK A01 T02090177  RH  082%=      5-min Rain = 0
KCO1 150406Z 18004KT 21/18 A2997 RMK A01 T02090177  RH  082%=      5-min Rain = 0
KCO1 150407Z 17005KT 21/18 A2998 RMK A01 T02090177  RH  082%=      5-min Rain = 0
KCO1 150408Z 17005KT 21/18 A2998 RMK A01 T02090177  RH  082%=      5-min Rain = 0
KCO1 150409Z 18005KT 21/18 A2998 RMK A01 T02090177  RH  082%=      5-min Rain = 0
KCO1 150410Z 18005KT 21/18 A2998 RMK A01 T02100177  RH  081%=      5-min Rain = 0
KCO1 150411Z 18004KT 21/18 A2998 RMK A01 T02100177  RH  081%=      5-min Rain = 0
KCO1 150412Z 18004KT 21/18 A2998 RMK A01 T02100177  RH  081%=      5-min Rain = 0
KCO1 150413Z 19004KT 21/18 A2998 RMK A01 T02100177  RH  081%=      5-min Rain = 0
KCO1 150414Z 18004KT 21/18 A2998 RMK A01 T02100177  RH  082%=      5-min Rain = 0
KCO1 150415Z 19003KT 21/18 A2998 RMK A01 T02100177  RH  082%=      5-min Rain = 0
KCO1 150416Z 19003KT 21/18 A2998 RMK A01 T02100177  RH  081%=      5-min Rain = 0
KCO1 150417Z 19004KT 21/18 A2998 RMK A01 T02100177  RH  081%=      5-min Rain = 0
KCO1 150418Z 19004KT 21/18 A2998 RMK A01 T02100177  RH  081%=      5-min Rain = 0
KCO1 150419Z 19004KT 21/18 A2998 RMK A01 T02100177  RH  081%=      5-min Rain = 0
KCO1 150420Z 19005KT 21/18 A2998 RMK A01 T02100177  RH  082%=      5-min Rain = 0
KCO1 150421Z 19005KT 21/18 A2998 RMK A01 T02090177  RH  082%=      5-min Rain = 0
KCO1 150422Z 19005KT 21/18 A2998 RMK A01 T02090177  RH  082%=      5-min Rain = 0
KCO1 150423Z 19005KT 21/18 A2998 RMK A01 T02090177  RH  082%=      5-min Rain = 0
KCO1 150424Z 20005KT 21/18 A2998 RMK A01 T02090176  RH  082%=      5-min Rain = 0
KCO1 150425Z 20005KT 21/18 A2998 RMK A01 T02080177  RH  082%=      5-min Rain = 0
KCO1 150426Z 19005KT 21/18 A2998 RMK A01 T02080177  RH  082%=      5-min Rain = 0
KCO1 150427Z 19005KT 21/18 A2998 RMK A01 T02080176  RH  082%=      5-min Rain = 0
KCO1 150428Z 19004KT 21/18 A2998 RMK A01 T02080176  RH  082%=      5-min Rain = 0
KCO1 150429Z 19004KT 21/18 A2998 RMK A01 T02080177  RH  082%=      5-min Rain = 0
KCO1 150430Z 19004KT 21/18 A2998 RMK A01 T02080177  RH  082%=      5-min Rain = 0
KCO1 150431Z 19005KT 21/18 A2998 RMK A01 T02080176  RH  082%=      5-min Rain = 0
KCO1 150432Z 19005KT 21/18 A2998 RMK A01 T02070176  RH  082%=      5-min Rain = 0
KCO1 150433Z 19004KT 21/18 A2998 RMK A01 T02080176  RH  082%=      5-min Rain = 0
KCO1 150434Z 19004KT 21/18 A2998 RMK A01 T02070176  RH  082%=      5-min Rain = 0
KCO1 150435Z 19004KT 21/18 A2998 RMK A01 T02080176  RH  082%=      5-min Rain = 0
KCO1 150436Z 18004KT 21/18 A2998 RMK A01 T02080177  RH  082%=      5-min Rain = 0
KCO1 150437Z 18004KT 21/18 A2998 RMK A01 T02070176  RH  082%=      5-min Rain = 0
KCO1 150438Z 18004KT 21/18 A2998 RMK A01 T02070177  RH  083%=      5-min Rain = 0
KCO1 150439Z 19004KT 21/18 A2998 RMK A01 T02070176  RH  083%=      5-min Rain = 0
KCO1 150440Z 19004KT 21/18 A2998 RMK A01 T02070176  RH  083%=      5-min Rain = 0
KCO1 150441Z 19004KT 21/18 A2998 RMK A01 T02060176  RH  083%=      5-min Rain = 0
KCO1 150442Z 19004KT 21/18 A2998 RMK A01 T02060176  RH  083%=      5-min Rain = 0
KCO1 150443Z 19005KT 21/18 A2998 RMK A01 T02060176  RH  083%=      5-min Rain = 0
KCO1 150444Z 19005KT 21/18 A2998 RMK A01 T02060176  RH  083%=      5-min Rain = 0
KCO1 150445Z 18005KT 21/18 A2998 RMK A01 T02060176  RH  083%=      5-min Rain = 0
KCO1 150446Z 18005KT 21/18 A2998 RMK A01 T02060176  RH  083%=      5-min Rain = 0
KCO1 150447Z 18005KT 21/18 A2998 RMK A01 T02060176  RH  083%=      5-min Rain = 0
KCO1 150448Z 18005KT 21/18 A2998 RMK A01 T02060176  RH  083%=      5-min Rain = 0
KCO1 150449Z 18005KT 21/18 A2998 RMK A01 T02060176  RH  083%=      5-min Rain = 0
KCO1 150450Z 18004KT 21/18 A2998 RMK A01 T02060176  RH  083%=      5-min Rain = 0
KCO1 150451Z 18004KT 21/18 A2998 RMK A01 T02060176  RH  083%=      5-min Rain = 0
KCO1 150452Z 18004KT 21/18 A2998 RMK A01 T02060176  RH  083%=      5-min Rain = 0
KCO1 150453Z 19004KT 21/18 A2998 RMK A01 T02060176  RH  083%=      5-min Rain = 0
KCO1 150454Z 18005KT 21/18 A2998 RMK A01 T02060176  RH  083%=      5-min Rain = 0
KCO1 150455Z 18005KT 21/18 A2998 RMK A01 T02060176  RH  083%=      5-min Rain = 0
KCO1 150456Z 18005KT 21/18 A2998 RMK A01 T02060175  RH  082%=      5-min Rain = 0
KCO1 150457Z 18004KT 21/18 A2998 RMK A01 T02060175  RH  082%=      5-min Rain = 0
KCO1 150458Z 18005KT 21/18 A2998 RMK A01 T02060175  RH  082%=      5-min Rain = 0
KCO1 150459Z 18005KT 21/18 A2998 RMK A01 T02060175  RH  082%=      5-min Rain = 0

Page generated in 0.0704 seconds.